Observation data for Crowell on 09/13/2017      Previous  Date  Next       Current Mesonet Observations  Soil Data  Daily Summary Page  Observations in Plain Language
KCR1 130500Z 11007KT 22/11 A2988 RMK A01 T02150108  RH  050%=      5-min Rain = 0
KCR1 130501Z 11007KT 21/11 A2988 RMK A01 T02140108  RH  051%=      5-min Rain = 0
KCR1 130502Z 11007KT 21/11 A2988 RMK A01 T02140108  RH  051%=      5-min Rain = 0
KCR1 130503Z 11007KT 21/11 A2988 RMK A01 T02140108  RH  051%=      5-min Rain = 0
KCR1 130504Z 11007KT 21/11 A2988 RMK A01 T02140108  RH  051%=      5-min Rain = 0
KCR1 130505Z 11007KT 21/11 A2988 RMK A01 T02140108  RH  051%=      5-min Rain = 0
KCR1 130506Z 11007KT 21/11 A2988 RMK A01 T02140107  RH  051%=      5-min Rain = 0
KCR1 130507Z 11007KT 21/11 A2988 RMK A01 T02140107  RH  050%=      5-min Rain = 0
KCR1 130508Z 10007KT 21/11 A2988 RMK A01 T02140107  RH  050%=      5-min Rain = 0
KCR1 130509Z 10007KT 21/11 A2988 RMK A01 T02140107  RH  050%=      5-min Rain = 0
KCR1 130510Z 10007KT 21/11 A2988 RMK A01 T02140107  RH  050%=      5-min Rain = 0
KCR1 130511Z 10006KT 21/11 A2988 RMK A01 T02140107  RH  050%=      5-min Rain = 0
KCR1 130512Z 11007KT 21/11 A2988 RMK A01 T02130107  RH  051%=      5-min Rain = 0
KCR1 130513Z 10006KT 21/11 A2988 RMK A01 T02130107  RH  051%=      5-min Rain = 0
KCR1 130514Z 11006KT 21/11 A2988 RMK A01 T02130106  RH  051%=      5-min Rain = 0
KCR1 130515Z 11006KT 21/11 A2988 RMK A01 T02130106  RH  051%=      5-min Rain = 0
KCR1 130516Z 11006KT 21/11 A2988 RMK A01 T02130107  RH  051%=      5-min Rain = 0
KCR1 130517Z 11006KT 21/11 A2988 RMK A01 T02120106  RH  051%=      5-min Rain = 0
KCR1 130518Z 11006KT 21/11 A2988 RMK A01 T02120106  RH  051%=      5-min Rain = 0
KCR1 130519Z 11006KT 21/11 A2988 RMK A01 T02110106  RH  051%=      5-min Rain = 0
KCR1 130520Z 10005KT 21/11 A2988 RMK A01 T02110106  RH  051%=      5-min Rain = 0
KCR1 130521Z 11006KT 21/11 A2988 RMK A01 T02100106  RH  051%=      5-min Rain = 0
KCR1 130522Z 10005KT 21/11 A2988 RMK A01 T02090107  RH  052%=      5-min Rain = 0
KCR1 130523Z 10005KT 21/11 A2988 RMK A01 T02080107  RH  052%=      5-min Rain = 0
KCR1 130524Z 10005KT 21/11 A2988 RMK A01 T02080107  RH  052%=      5-min Rain = 0
KCR1 130525Z 10005KT 21/11 A2988 RMK A01 T02080108  RH  053%=      5-min Rain = 0
KCR1 130526Z 10005KT 21/11 A2988 RMK A01 T02070107  RH  053%=      5-min Rain = 0
KCR1 130527Z 11006KT 21/11 A2988 RMK A01 T02060107  RH  053%=      5-min Rain = 0
KCR1 130528Z 11006KT 21/11 A2988 RMK A01 T02060107  RH  053%=      5-min Rain = 0
KCR1 130529Z 11006KT 21/11 A2988 RMK A01 T02060106  RH  053%=      5-min Rain = 0
KCR1 130530Z 11006KT 21/11 A2988 RMK A01 T02060106  RH  053%=      5-min Rain = 0
KCR1 130531Z 11006KT 21/11 A2988 RMK A01 T02060106  RH  053%=      5-min Rain = 0
KCR1 130532Z 11006KT 21/11 A2988 RMK A01 T02060106  RH  053%=      5-min Rain = 0
KCR1 130533Z 11006KT 21/11 A2988 RMK A01 T02060106  RH  053%=      5-min Rain = 0
KCR1 130534Z 11006KT 21/11 A2988 RMK A01 T02060106  RH  053%=      5-min Rain = 0
KCR1 130535Z 11005KT 21/11 A2988 RMK A01 T02060106  RH  053%=      5-min Rain = 0
KCR1 130536Z 11005KT 21/11 A2988 RMK A01 T02050106  RH  053%=      5-min Rain = 0
KCR1 130537Z 11006KT 20/11 A2988 RMK A01 T02040106  RH  053%=      5-min Rain = 0
KCR1 130538Z 11005KT 20/11 A2988 RMK A01 T02030106  RH  054%=      5-min Rain = 0
KCR1 130539Z 11005KT 20/11 A2988 RMK A01 T02030107  RH  054%=      5-min Rain = 0
KCR1 130540Z 11005KT 20/11 A2988 RMK A01 T02020107  RH  054%=      5-min Rain = 0
KCR1 130541Z 11005KT 20/11 A2988 RMK A01 T02010107  RH  054%=      5-min Rain = 0
KCR1 130542Z 11005KT 20/11 A2988 RMK A01 T02010107  RH  055%=      5-min Rain = 0
KCR1 130543Z 11005KT 20/11 A2987 RMK A01 T02010107  RH  055%=      5-min Rain = 0
KCR1 130544Z 11005KT 20/11 A2987 RMK A01 T02010108  RH  055%=      5-min Rain = 0
KCR1 130545Z 11005KT 20/11 A2987 RMK A01 T02000107  RH  055%=      5-min Rain = 0
KCR1 130546Z 11005KT 20/11 A2987 RMK A01 T02000107  RH  055%=      5-min Rain = 0
KCR1 130547Z 11005KT 20/11 A2987 RMK A01 T02010107  RH  055%=      5-min Rain = 0
KCR1 130548Z 11005KT 20/11 A2987 RMK A01 T02010107  RH  055%=      5-min Rain = 0
KCR1 130549Z 11005KT 20/11 A2988 RMK A01 T02000107  RH  055%=      5-min Rain = 0
KCR1 130550Z 11005KT 20/11 A2988 RMK A01 T02000107  RH  055%=      5-min Rain = 0
KCR1 130551Z 11005KT 20/11 A2988 RMK A01 T02010107  RH  055%=      5-min Rain = 0
KCR1 130552Z 11005KT 20/11 A2988 RMK A01 T02010107  RH  055%=      5-min Rain = 0
KCR1 130553Z 11005KT 20/11 A2988 RMK A01 T02010107  RH  055%=      5-min Rain = 0
KCR1 130554Z 12005KT 20/11 A2988 RMK A01 T02000106  RH  055%=      5-min Rain = 0
KCR1 130555Z 12005KT 20/11 A2988 RMK A01 T01990107  RH  055%=      5-min Rain = 0
KCR1 130556Z 12004KT 20/11 A2988 RMK A01 T01990107  RH  055%=      5-min Rain = 0
KCR1 130557Z 12004KT 20/11 A2988 RMK A01 T01980107  RH  056%=      5-min Rain = 0
KCR1 130558Z 12004KT 20/11 A2988 RMK A01 T01980107  RH  056%=      5-min Rain = 0
KCR1 130559Z 12004KT 20/11 A2988 RMK A01 T01970106  RH  056%=      5-min Rain = 0
KCR1 130600Z 12003KT 20/11 A2988 RMK A01 T01960106  RH  056%=      5-min Rain = 0
KCR1 130601Z 12003KT 20/11 A2988 RMK A01 T01960106  RH  056%=      5-min Rain = 0
KCR1 130602Z 12003KT 20/11 A2988 RMK A01 T01960106  RH  056%=      5-min Rain = 0
KCR1 130603Z 13003KT 20/11 A2988 RMK A01 T01950106  RH  056%=      5-min Rain = 0
KCR1 130604Z 13003KT 20/11 A2988 RMK A01 T01950105  RH  056%=      5-min Rain = 0
KCR1 130605Z 13003KT 20/11 A2988 RMK A01 T01950105  RH  056%=      5-min Rain = 0
KCR1 130606Z 13003KT 20/11 A2988 RMK A01 T01960106  RH  056%=      5-min Rain = 0
KCR1 130607Z 13003KT 20/11 A2988 RMK A01 T01950105  RH  056%=      5-min Rain = 0
KCR1 130608Z 13003KT 20/11 A2988 RMK A01 T01950105  RH  056%=      5-min Rain = 0
KCR1 130609Z 13003KT 20/11 A2988 RMK A01 T01960105  RH  056%=      5-min Rain = 0
KCR1 130610Z 13003KT 20/11 A2988 RMK A01 T01960105  RH  055%=      5-min Rain = 0
KCR1 130611Z 13003KT 20/11 A2988 RMK A01 T01970105  RH  055%=      5-min Rain = 0
KCR1 130612Z 13003KT 20/11 A2988 RMK A01 T01970105  RH  055%=      5-min Rain = 0
KCR1 130613Z 14003KT 20/10 A2988 RMK A01 T01970104  RH  055%=      5-min Rain = 0
KCR1 130614Z 14003KT 20/10 A2988 RMK A01 T01970104  RH  055%=      5-min Rain = 0
KCR1 130615Z 14003KT 20/10 A2988 RMK A01 T01970104  RH  055%=      5-min Rain = 0
KCR1 130616Z 14003KT 20/11 A2988 RMK A01 T01970105  RH  055%=      5-min Rain = 0
KCR1 130617Z 14003KT 20/11 A2988 RMK A01 T01970105  RH  055%=      5-min Rain = 0
KCR1 130618Z 15003KT 20/10 A2988 RMK A01 T01970104  RH  055%=      5-min Rain = 0
KCR1 130619Z 15003KT 20/10 A2988 RMK A01 T01970104  RH  055%=      5-min Rain = 0
KCR1 130620Z 15002KT 20/10 A2988 RMK A01 T01970104  RH  055%=      5-min Rain = 0
KCR1 130621Z 15002KT 20/10 A2988 RMK A01 T01960104  RH  055%=      5-min Rain = 0
KCR1 130622Z 16002KT 20/10 A2988 RMK A01 T01960104  RH  055%=      5-min Rain = 0
KCR1 130623Z 17002KT 20/10 A2988 RMK A01 T01970104  RH  055%=      5-min Rain = 0
KCR1 130624Z 17002KT 20/10 A2988 RMK A01 T01970104  RH  055%=      5-min Rain = 0
KCR1 130625Z 17002KT 20/11 A2988 RMK A01 T01960105  RH  056%=      5-min Rain = 0
KCR1 130626Z 17002KT 20/11 A2988 RMK A01 T01960105  RH  056%=      5-min Rain = 0
KCR1 130627Z 16002KT 20/11 A2988 RMK A01 T01950105  RH  056%=      5-min Rain = 0
KCR1 130628Z 15002KT 19/11 A2988 RMK A01 T01940105  RH  056%=      5-min Rain = 0
KCR1 130629Z 15002KT 19/11 A2988 RMK A01 T01940105  RH  057%=      5-min Rain = 0
KCR1 130630Z 15002KT 19/11 A2988 RMK A01 T01930105  RH  057%=      5-min Rain = 0
KCR1 130631Z 15002KT 19/11 A2988 RMK A01 T01920106  RH  057%=      5-min Rain = 0
KCR1 130632Z 15002KT 19/11 A2988 RMK A01 T01910106  RH  058%=      5-min Rain = 0
KCR1 130633Z 16002KT 19/11 A2988 RMK A01 T01900106  RH  058%=      5-min Rain = 0
KCR1 130634Z 15002KT 19/11 A2988 RMK A01 T01900105  RH  058%=      5-min Rain = 0
KCR1 130635Z 16002KT 19/11 A2988 RMK A01 T01890105  RH  058%=      5-min Rain = 0
KCR1 130636Z 16002KT 19/11 A2988 RMK A01 T01890106  RH  058%=      5-min Rain = 0
KCR1 130637Z 16002KT 19/11 A2988 RMK A01 T01890106  RH  058%=      5-min Rain = 0
KCR1 130638Z 16002KT 19/11 A2988 RMK A01 T01890106  RH  058%=      5-min Rain = 0
KCR1 130639Z 16002KT 19/11 A2988 RMK A01 T01890106  RH  058%=      5-min Rain = 0
KCR1 130640Z 16002KT 19/11 A2988 RMK A01 T01890105  RH  058%=      5-min Rain = 0
KCR1 130641Z 16003KT 19/11 A2988 RMK A01 T01880105  RH  058%=      5-min Rain = 0
KCR1 130642Z 16003KT 19/10 A2988 RMK A01 T01880104  RH  058%=      5-min Rain = 0
KCR1 130643Z 16003KT 19/11 A2988 RMK A01 T01880105  RH  058%=      5-min Rain = 0
KCR1 130644Z 16003KT 19/11 A2988 RMK A01 T01880105  RH  058%=      5-min Rain = 0
KCR1 130645Z 17003KT 19/10 A2988 RMK A01 T01870104  RH  058%=      5-min Rain = 0
KCR1 130646Z 17003KT 19/10 A2988 RMK A01 T01870104  RH  058%=      5-min Rain = 0
KCR1 130647Z 17003KT 19/11 A2988 RMK A01 T01870105  RH  059%=      5-min Rain = 0
KCR1 130648Z 17003KT 19/11 A2988 RMK A01 T01860105  RH  059%=      5-min Rain = 0
KCR1 130649Z 18003KT 19/11 A2988 RMK A01 T01860106  RH  060%=      5-min Rain = 0
KCR1 130650Z 18003KT 19/11 A2988 RMK A01 T01870106  RH  059%=      5-min Rain = 0
KCR1 130651Z 19003KT 19/11 A2988 RMK A01 T01870105  RH  059%=      5-min Rain = 0
KCR1 130652Z 20002KT 19/10 A2988 RMK A01 T01870104  RH  058%=      5-min Rain = 0
KCR1 130653Z 20002KT 19/10 A2988 RMK A01 T01870104  RH  058%=      5-min Rain = 0
KCR1 130654Z 20002KT 19/10 A2988 RMK A01 T01860104  RH  059%=      5-min Rain = 0
KCR1 130655Z 20002KT 19/10 A2988 RMK A01 T01860104  RH  059%=      5-min Rain = 0
KCR1 130656Z 19002KT 19/10 A2988 RMK A01 T01860104  RH  059%=      5-min Rain = 0
KCR1 130657Z 19002KT 19/10 A2988 RMK A01 T01850104  RH  059%=      5-min Rain = 0
KCR1 130658Z 18002KT 19/11 A2988 RMK A01 T01850105  RH  059%=      5-min Rain = 0
KCR1 130659Z 18002KT 19/11 A2988 RMK A01 T01850105  RH  060%=      5-min Rain = 0
KCR1 130700Z 18002KT 19/11 A2988 RMK A01 T01850105  RH  060%=      5-min Rain = 0
KCR1 130701Z 18002KT 19/11 A2988 RMK A01 T01850105  RH  060%=      5-min Rain = 0
KCR1 130702Z 18002KT 19/11 A2988 RMK A01 T01850105  RH  059%=      5-min Rain = 0
KCR1 130703Z 18002KT 19/11 A2988 RMK A01 T01860105  RH  059%=      5-min Rain = 0
KCR1 130704Z 17002KT 19/11 A2988 RMK A01 T01860105  RH  059%=      5-min Rain = 0
KCR1 130705Z 17003KT 19/11 A2988 RMK A01 T01870105  RH  059%=      5-min Rain = 0
KCR1 130706Z 17003KT 19/11 A2988 RMK A01 T01870105  RH  059%=      5-min Rain = 0
KCR1 130707Z 17003KT 19/11 A2988 RMK A01 T01880105  RH  059%=      5-min Rain = 0
KCR1 130708Z 17002KT 19/11 A2988 RMK A01 T01880105  RH  059%=      5-min Rain = 0
KCR1 130709Z 17002KT 19/11 A2988 RMK A01 T01880105  RH  059%=      5-min Rain = 0
KCR1 130710Z 17002KT 19/11 A2988 RMK A01 T01880105  RH  059%=      5-min Rain = 0
KCR1 130711Z 18002KT 19/11 A2988 RMK A01 T01880105  RH  059%=      5-min Rain = 0
KCR1 130712Z 18002KT 19/11 A2988 RMK A01 T01890105  RH  058%=      5-min Rain = 0
KCR1 130713Z 18002KT 19/11 A2988 RMK A01 T01890105  RH  058%=      5-min Rain = 0
KCR1 130714Z 18002KT 19/11 A2988 RMK A01 T01890105  RH  058%=      5-min Rain = 0
KCR1 130715Z 19002KT 19/11 A2988 RMK A01 T01900105  RH  058%=      5-min Rain = 0
KCR1 130716Z 19002KT 19/11 A2988 RMK A01 T01900106  RH  058%=      5-min Rain = 0
KCR1 130717Z 20002KT 19/11 A2988 RMK A01 T01900106  RH  058%=      5-min Rain = 0
KCR1 130718Z 20002KT 19/11 A2988 RMK A01 T01900106  RH  058%=      5-min Rain = 0
KCR1 130719Z 20003KT 19/11 A2988 RMK A01 T01900105  RH  058%=      5-min Rain = 0
KCR1 130720Z 21003KT 19/11 A2988 RMK A01 T01900106  RH  058%=      5-min Rain = 0
KCR1 130721Z 21003KT 19/11 A2988 RMK A01 T01900107  RH  058%=      5-min Rain = 0
KCR1 130722Z 21003KT 19/11 A2988 RMK A01 T01900106  RH  058%=      5-min Rain = 0
KCR1 130723Z 22003KT 19/11 A2988 RMK A01 T01900106  RH  058%=      5-min Rain = 0
KCR1 130724Z 22003KT 19/11 A2988 RMK A01 T01900106  RH  058%=      5-min Rain = 0
KCR1 130725Z 22003KT 19/11 A2988 RMK A01 T01890106  RH  058%=      5-min Rain = 0
KCR1 130726Z 23003KT 19/11 A2988 RMK A01 T01880106  RH  059%=      5-min Rain = 0
KCR1 130727Z 23003KT 19/11 A2988 RMK A01 T01880106  RH  059%=      5-min Rain = 0
KCR1 130728Z 24003KT 19/11 A2988 RMK A01 T01880106  RH  059%=      5-min Rain = 0
KCR1 130729Z 24003KT 19/11 A2988 RMK A01 T01880106  RH  059%=      5-min Rain = 0
KCR1 130730Z 25003KT 19/11 A2988 RMK A01 T01880106  RH  059%=      5-min Rain = 0
KCR1 130731Z 25003KT 19/11 A2988 RMK A01 T01880106  RH  059%=      5-min Rain = 0
KCR1 130732Z 25003KT 19/11 A2988 RMK A01 T01870106  RH  059%=      5-min Rain = 0
KCR1 130733Z 25003KT 19/11 A2988 RMK A01 T01860106  RH  060%=      5-min Rain = 0
KCR1 130734Z 25003KT 19/11 A2988 RMK A01 T01860106  RH  060%=      5-min Rain = 0
KCR1 130735Z 25003KT 19/11 A2988 RMK A01 T01850106  RH  060%=      5-min Rain = 0
KCR1 130736Z 25003KT 19/11 A2988 RMK A01 T01850106  RH  060%=      5-min Rain = 0
KCR1 130737Z 25003KT 19/11 A2988 RMK A01 T01850106  RH  060%=      5-min Rain = 0
KCR1 130738Z 24003KT 18/11 A2988 RMK A01 T01840106  RH  060%=      5-min Rain = 0
KCR1 130739Z 24003KT 18/11 A2988 RMK A01 T01840106  RH  060%=      5-min Rain = 0
KCR1 130740Z 24003KT 19/11 A2988 RMK A01 T01850106  RH  060%=      5-min Rain = 0
KCR1 130741Z 23003KT 19/11 A2988 RMK A01 T01850106  RH  060%=      5-min Rain = 0
KCR1 130742Z 22003KT 19/11 A2988 RMK A01 T01860105  RH  059%=      5-min Rain = 0
KCR1 130743Z 21003KT 19/11 A2988 RMK A01 T01870106  RH  059%=      5-min Rain = 0
KCR1 130744Z 19003KT 19/11 A2987 RMK A01 T01870105  RH  059%=      5-min Rain = 0
KCR1 130745Z 19002KT 19/11 A2987 RMK A01 T01870105  RH  059%=      5-min Rain = 0
KCR1 130746Z 19003KT 19/10 A2987 RMK A01 T01880104  RH  058%=      5-min Rain = 0
KCR1 130747Z 19002KT 19/11 A2987 RMK A01 T01880105  RH  058%=      5-min Rain = 0
KCR1 130748Z 19002KT 19/11 A2987 RMK A01 T01880105  RH  059%=      5-min Rain = 0
KCR1 130749Z 19002KT 19/11 A2987 RMK A01 T01880105  RH  059%=      5-min Rain = 0
KCR1 130750Z 20002KT 19/11 A2987 RMK A01 T01880105  RH  058%=      5-min Rain = 0
KCR1 130751Z 20002KT 19/10 A2987 RMK A01 T01880104  RH  058%=      5-min Rain = 0
KCR1 130752Z 20002KT 19/10 A2988 RMK A01 T01880104  RH  058%=      5-min Rain = 0
KCR1 130753Z 20002KT 19/11 A2988 RMK A01 T01890105  RH  058%=      5-min Rain = 0
KCR1 130754Z 20002KT 19/11 A2988 RMK A01 T01880105  RH  058%=      5-min Rain = 0
KCR1 130755Z 21002KT 19/11 A2988 RMK A01 T01890105  RH  058%=      5-min Rain = 0
KCR1 130756Z 21002KT 19/11 A2988 RMK A01 T01900105  RH  058%=      5-min Rain = 0
KCR1 130757Z 21002KT 19/11 A2988 RMK A01 T01910105  RH  057%=      5-min Rain = 0
KCR1 130758Z 21002KT 19/11 A2988 RMK A01 T01920105  RH  057%=      5-min Rain = 0
KCR1 130759Z 21002KT 19/11 A2988 RMK A01 T01920105  RH  057%=      5-min Rain = 0
KCR1 130800Z 21002KT 19/11 A2988 RMK A01 T01920105  RH  057%=      5-min Rain = 0
KCR1 130801Z 22002KT 19/11 A2988 RMK A01 T01920105  RH  057%=      5-min Rain = 0
KCR1 130802Z 22002KT 19/11 A2988 RMK A01 T01920105  RH  057%=      5-min Rain = 0
KCR1 130803Z 22002KT 19/11 A2988 RMK A01 T01920105  RH  057%=      5-min Rain = 0
KCR1 130804Z 22002KT 19/11 A2988 RMK A01 T01920105  RH  057%=      5-min Rain = 0
KCR1 130805Z 22002KT 19/10 A2988 RMK A01 T01910104  RH  057%=      5-min Rain = 0
KCR1 130806Z 21002KT 19/10 A2988 RMK A01 T01910104  RH  057%=      5-min Rain = 0
KCR1 130807Z 21002KT 19/10 A2988 RMK A01 T01910104  RH  057%=      5-min Rain = 0
KCR1 130808Z 21002KT 19/10 A2988 RMK A01 T01920104  RH  057%=      5-min Rain = 0
KCR1 130809Z 21002KT 19/10 A2988 RMK A01 T01920104  RH  057%=      5-min Rain = 0
KCR1 130810Z 21002KT 19/10 A2988 RMK A01 T01910104  RH  057%=      5-min Rain = 0
KCR1 130811Z 20002KT 19/10 A2987 RMK A01 T01900104  RH  057%=      5-min Rain = 0
KCR1 130812Z 20002KT 19/10 A2987 RMK A01 T01900104  RH  057%=      5-min Rain = 0
KCR1 130813Z 19002KT 19/10 A2987 RMK A01 T01900104  RH  057%=      5-min Rain = 0
KCR1 130814Z 19002KT 19/11 A2987 RMK A01 T01900107  RH  059%=      5-min Rain = 0
KCR1 130815Z 18002KT 19/11 A2987 RMK A01 T01890107  RH  059%=      5-min Rain = 0
KCR1 130816Z 18002KT 19/11 A2987 RMK A01 T01870107  RH  059%=      5-min Rain = 0
KCR1 130817Z 18002KT 19/11 A2987 RMK A01 T01870106  RH  059%=      5-min Rain = 0
KCR1 130818Z 18002KT 19/11 A2987 RMK A01 T01870106  RH  059%=      5-min Rain = 0
KCR1 130819Z 18002KT 19/11 A2987 RMK A01 T01860105  RH  059%=      5-min Rain = 0
KCR1 130820Z 19002KT 19/11 A2987 RMK A01 T01860105  RH  059%=      5-min Rain = 0
KCR1 130821Z 19002KT 19/11 A2987 RMK A01 T01860105  RH  059%=      5-min Rain = 0
KCR1 130822Z 20002KT 19/11 A2987 RMK A01 T01860105  RH  059%=      5-min Rain = 0
KCR1 130823Z 20002KT 19/11 A2987 RMK A01 T01860105  RH  059%=      5-min Rain = 0
KCR1 130824Z 21002KT 19/11 A2988 RMK A01 T01860105  RH  059%=      5-min Rain = 0
KCR1 130825Z 22002KT 19/11 A2988 RMK A01 T01860106  RH  059%=      5-min Rain = 0
KCR1 130826Z 22002KT 19/11 A2988 RMK A01 T01860105  RH  059%=      5-min Rain = 0
KCR1 130827Z 23002KT 19/11 A2988 RMK A01 T01870105  RH  059%=      5-min Rain = 0
KCR1 130828Z 23002KT 19/11 A2988 RMK A01 T01890106  RH  058%=      5-min Rain = 0
KCR1 130829Z 23002KT 19/11 A2988 RMK A01 T01890106  RH  058%=      5-min Rain = 0
KCR1 130830Z 23003KT 19/11 A2988 RMK A01 T01900105  RH  058%=      5-min Rain = 0
KCR1 130831Z 23003KT 19/11 A2988 RMK A01 T01900105  RH  058%=      5-min Rain = 0
KCR1 130832Z 23003KT 19/11 A2988 RMK A01 T01900106  RH  058%=      5-min Rain = 0
KCR1 130833Z 23003KT 19/11 A2988 RMK A01 T01900105  RH  058%=      5-min Rain = 0
KCR1 130834Z 23003KT 19/11 A2987 RMK A01 T01890106  RH  058%=      5-min Rain = 0
KCR1 130835Z 23003KT 19/11 A2987 RMK A01 T01880106  RH  059%=      5-min Rain = 0
KCR1 130836Z 23003KT 19/11 A2987 RMK A01 T01880105  RH  059%=      5-min Rain = 0
KCR1 130837Z 23003KT 19/11 A2987 RMK A01 T01880105  RH  059%=      5-min Rain = 0
KCR1 130838Z 23003KT 19/11 A2987 RMK A01 T01880106  RH  059%=      5-min Rain = 0
KCR1 130839Z 23003KT 19/11 A2987 RMK A01 T01870105  RH  059%=      5-min Rain = 0
KCR1 130840Z 24003KT 19/11 A2987 RMK A01 T01860105  RH  059%=      5-min Rain = 0
KCR1 130841Z 24003KT 19/11 A2987 RMK A01 T01870105  RH  059%=      5-min Rain = 0
KCR1 130842Z 24003KT 19/11 A2987 RMK A01 T01870105  RH  059%=      5-min Rain = 0
KCR1 130843Z 24003KT 19/11 A2987 RMK A01 T01870105  RH  059%=      5-min Rain = 0
KCR1 130844Z 24003KT 19/11 A2987 RMK A01 T01860105  RH  059%=      5-min Rain = 0
KCR1 130845Z 24003KT 19/11 A2987 RMK A01 T01860106  RH  060%=      5-min Rain = 0
KCR1 130846Z 24003KT 19/11 A2987 RMK A01 T01850106  RH  060%=      5-min Rain = 0
KCR1 130847Z 24003KT 18/11 A2987 RMK A01 T01840106  RH  060%=      5-min Rain = 0
KCR1 130848Z 24003KT 18/11 A2987 RMK A01 T01840105  RH  060%=      5-min Rain = 0
KCR1 130849Z 23003KT 19/11 A2987 RMK A01 T01850106  RH  060%=      5-min Rain = 0
KCR1 130850Z 23003KT 19/11 A2987 RMK A01 T01850105  RH  060%=      5-min Rain = 0
KCR1 130851Z 22002KT 19/11 A2987 RMK A01 T01860106  RH  060%=      5-min Rain = 0
KCR1 130852Z 22002KT 19/11 A2987 RMK A01 T01860105  RH  060%=      5-min Rain = 0
KCR1 130853Z 21002KT 19/11 A2987 RMK A01 T01850105  RH  059%=      5-min Rain = 0
KCR1 130854Z 21002KT 19/11 A2987 RMK A01 T01860105  RH  059%=      5-min Rain = 0
KCR1 130855Z 20002KT 19/11 A2987 RMK A01 T01860105  RH  059%=      5-min Rain = 0
KCR1 130856Z 19002KT 19/11 A2987 RMK A01 T01860105  RH  059%=      5-min Rain = 0
KCR1 130857Z 19002KT 19/11 A2987 RMK A01 T01850105  RH  060%=      5-min Rain = 0
KCR1 130858Z 18002KT 19/11 A2987 RMK A01 T01850105  RH  060%=      5-min Rain = 0
KCR1 130859Z 19002KT 18/11 A2987 RMK A01 T01840105  RH  060%=      5-min Rain = 0
KCR1 130900Z 19002KT 18/11 A2987 RMK A01 T01840106  RH  060%=      5-min Rain = 0
KCR1 130901Z 19002KT 18/11 A2987 RMK A01 T01830106  RH  061%=      5-min Rain = 0
KCR1 130902Z 19002KT 18/11 A2987 RMK A01 T01830106  RH  061%=      5-min Rain = 0
KCR1 130903Z 19002KT 18/11 A2987 RMK A01 T01820105  RH  061%=      5-min Rain = 0
KCR1 130904Z 19002KT 18/11 A2987 RMK A01 T01820105  RH  061%=      5-min Rain = 0
KCR1 130905Z 19001KT 18/11 A2987 RMK A01 T01820106  RH  061%=      5-min Rain = 0
KCR1 130906Z 19002KT 18/11 A2987 RMK A01 T01810106  RH  061%=      5-min Rain = 0
KCR1 130907Z 19002KT 18/11 A2987 RMK A01 T01810106  RH  062%=      5-min Rain = 0
KCR1 130908Z 19001KT 18/11 A2987 RMK A01 T01810106  RH  062%=      5-min Rain = 0
KCR1 130909Z 19001KT 18/11 A2987 RMK A01 T01800106  RH  062%=      5-min Rain = 0
KCR1 130910Z 19001KT 18/11 A2987 RMK A01 T01800106  RH  062%=      5-min Rain = 0
KCR1 130911Z 19001KT 18/11 A2987 RMK A01 T01800106  RH  062%=      5-min Rain = 0
KCR1 130912Z 19002KT 18/11 A2987 RMK A01 T01800107  RH  062%=      5-min Rain = 0
KCR1 130913Z 20002KT 18/11 A2987 RMK A01 T01800107  RH  062%=      5-min Rain = 0
KCR1 130914Z 21002KT 18/11 A2987 RMK A01 T01790108  RH  063%=      5-min Rain = 0
KCR1 130915Z 22002KT 18/11 A2987 RMK A01 T01790108  RH  063%=      5-min Rain = 0
KCR1 130916Z 22002KT 18/11 A2987 RMK A01 T01780108  RH  063%=      5-min Rain = 0
KCR1 130917Z 22002KT 18/11 A2987 RMK A01 T01780107  RH  063%=      5-min Rain = 0
KCR1 130918Z 22001KT 18/11 A2987 RMK A01 T01780107  RH  063%=      5-min Rain = 0
KCR1 130919Z 22001KT 18/11 A2987 RMK A01 T01780106  RH  063%=      5-min Rain = 0
KCR1 130920Z 21001KT 18/11 A2987 RMK A01 T01770105  RH  063%=      5-min Rain = 0
KCR1 130921Z 21000KT 18/11 A2987 RMK A01 T01780105  RH  062%=      5-min Rain = 0
KCR1 130922Z 21000KT 18/11 A2987 RMK A01 T01780105  RH  062%=      5-min Rain = 0
KCR1 130923Z 21001KT 18/11 A2987 RMK A01 T01790106  RH  062%=      5-min Rain = 0
KCR1 130924Z 21001KT 18/11 A2987 RMK A01 T01790106  RH  062%=      5-min Rain = 0
KCR1 130925Z 21000KT 18/11 A2987 RMK A01 T01790107  RH  063%=      5-min Rain = 0
KCR1 130926Z 00000KT 18/11 A2987 RMK A01 T01790107  RH  063%=      5-min Rain = 0
KCR1 130927Z 00000KT 18/11 A2987 RMK A01 T01790106  RH  063%=      5-min Rain = 0
KCR1 130928Z 00000KT 18/11 A2987 RMK A01 T01790107  RH  063%=      5-min Rain = 0
KCR1 130929Z 00000KT 18/11 A2987 RMK A01 T01780107  RH  063%=      5-min Rain = 0
KCR1 130930Z 00000KT 18/11 A2987 RMK A01 T01780107  RH  063%=      5-min Rain = 0
KCR1 130931Z 00000KT 18/11 A2987 RMK A01 T01770107  RH  063%=      5-min Rain = 0
KCR1 130932Z 00000KT 18/11 A2987 RMK A01 T01760107  RH  064%=      5-min Rain = 0
KCR1 130933Z 26000KT 18/11 A2987 RMK A01 T01750107  RH  064%=      5-min Rain = 0
KCR1 130934Z 26001KT 17/11 A2987 RMK A01 T01740107  RH  065%=      5-min Rain = 0
KCR1 130935Z 26001KT 17/11 A2987 RMK A01 T01730108  RH  065%=      5-min Rain = 0
KCR1 130936Z 27001KT 17/11 A2987 RMK A01 T01730108  RH  066%=      5-min Rain = 0
KCR1 130937Z 27002KT 17/11 A2987 RMK A01 T01720108  RH  066%=      5-min Rain = 0
KCR1 130938Z 28002KT 17/11 A2987 RMK A01 T01720107  RH  066%=      5-min Rain = 0
KCR1 130939Z 28002KT 17/11 A2987 RMK A01 T01720106  RH  065%=      5-min Rain = 0
KCR1 130940Z 28002KT 17/11 A2987 RMK A01 T01730106  RH  065%=      5-min Rain = 0
KCR1 130941Z 28002KT 17/11 A2987 RMK A01 T01730106  RH  065%=      5-min Rain = 0
KCR1 130942Z 28002KT 17/11 A2987 RMK A01 T01730107  RH  065%=      5-min Rain = 0
KCR1 130943Z 28002KT 17/11 A2987 RMK A01 T01730108  RH  065%=      5-min Rain = 0
KCR1 130944Z 28002KT 17/11 A2987 RMK A01 T01720107  RH  066%=      5-min Rain = 0
KCR1 130945Z 28003KT 17/11 A2987 RMK A01 T01720108  RH  066%=      5-min Rain = 0
KCR1 130946Z 28003KT 17/11 A2987 RMK A01 T01710107  RH  066%=      5-min Rain = 0
KCR1 130947Z 28003KT 17/11 A2987 RMK A01 T01710107  RH  066%=      5-min Rain = 0
KCR1 130948Z 28003KT 17/11 A2987 RMK A01 T01710107  RH  066%=      5-min Rain = 0
KCR1 130949Z 28003KT 17/11 A2987 RMK A01 T01710106  RH  066%=      5-min Rain = 0
KCR1 130950Z 28003KT 17/11 A2987 RMK A01 T01710107  RH  066%=      5-min Rain = 0
KCR1 130951Z 29003KT 17/11 A2987 RMK A01 T01710107  RH  066%=      5-min Rain = 0
KCR1 130952Z 29003KT 17/11 A2987 RMK A01 T01710107  RH  066%=      5-min Rain = 0
KCR1 130953Z 29003KT 17/11 A2987 RMK A01 T01710106  RH  066%=      5-min Rain = 0
KCR1 130954Z 29003KT 17/11 A2988 RMK A01 T01710106  RH  065%=      5-min Rain = 0
KCR1 130955Z 29003KT 17/11 A2988 RMK A01 T01720107  RH  066%=      5-min Rain = 0
KCR1 130956Z 29003KT 17/11 A2988 RMK A01 T01710107  RH  066%=      5-min Rain = 0
KCR1 130957Z 29003KT 17/11 A2988 RMK A01 T01710107  RH  066%=      5-min Rain = 0
KCR1 130958Z 29003KT 17/11 A2988 RMK A01 T01700107  RH  066%=      5-min Rain = 0
KCR1 130959Z 29003KT 17/11 A2988 RMK A01 T01700107  RH  067%=      5-min Rain = 0
KCR1 131000Z 29003KT 17/11 A2988 RMK A01 T01690108  RH  067%=      5-min Rain = 0
KCR1 131001Z 30003KT 17/11 A2988 RMK A01 T01690108  RH  067%=      5-min Rain = 0
KCR1 131002Z 30003KT 17/11 A2988 RMK A01 T01690108  RH  067%=      5-min Rain = 0
KCR1 131003Z 31003KT 17/11 A2988 RMK A01 T01690108  RH  067%=      5-min Rain = 0
KCR1 131004Z 31003KT 17/11 A2988 RMK A01 T01690107  RH  067%=      5-min Rain = 0
KCR1 131005Z 31002KT 17/11 A2988 RMK A01 T01690108  RH  067%=      5-min Rain = 0
KCR1 131006Z 32002KT 17/11 A2988 RMK A01 T01690108  RH  067%=      5-min Rain = 0
KCR1 131007Z 32002KT 17/11 A2988 RMK A01 T01690108  RH  067%=      5-min Rain = 0
KCR1 131008Z 31002KT 17/11 A2988 RMK A01 T01680108  RH  067%=      5-min Rain = 0
KCR1 131009Z 31002KT 17/11 A2988 RMK A01 T01680108  RH  067%=      5-min Rain = 0
KCR1 131010Z 30002KT 17/11 A2988 RMK A01 T01680108  RH  067%=      5-min Rain = 0
KCR1 131011Z 30002KT 17/11 A2988 RMK A01 T01690108  RH  067%=      5-min Rain = 0
KCR1 131012Z 29002KT 17/11 A2988 RMK A01 T01680108  RH  068%=      5-min Rain = 0
KCR1 131013Z 28002KT 17/11 A2988 RMK A01 T01680108  RH  067%=      5-min Rain = 0
KCR1 131014Z 29002KT 17/11 A2988 RMK A01 T01690108  RH  068%=      5-min Rain = 0
KCR1 131015Z 29002KT 17/11 A2988 RMK A01 T01680108  RH  068%=      5-min Rain = 0
KCR1 131016Z 29002KT 17/11 A2988 RMK A01 T01680108  RH  067%=      5-min Rain = 0
KCR1 131017Z 29002KT 17/11 A2988 RMK A01 T01680107  RH  067%=      5-min Rain = 0
KCR1 131018Z 29002KT 17/11 A2988 RMK A01 T01680108  RH  068%=      5-min Rain = 0
KCR1 131019Z 29002KT 17/11 A2988 RMK A01 T01670108  RH  068%=      5-min Rain = 0
KCR1 131020Z 29002KT 17/11 A2988 RMK A01 T01670108  RH  068%=      5-min Rain = 0
KCR1 131021Z 29002KT 17/11 A2988 RMK A01 T01670108  RH  068%=      5-min Rain = 0
KCR1 131022Z 29002KT 17/11 A2988 RMK A01 T01660108  RH  068%=      5-min Rain = 0
KCR1 131023Z 29002KT 17/11 A2988 RMK A01 T01660107  RH  068%=      5-min Rain = 0
KCR1 131024Z 29002KT 17/11 A2988 RMK A01 T01660107  RH  068%=      5-min Rain = 0
KCR1 131025Z 29002KT 17/11 A2988 RMK A01 T01660108  RH  068%=      5-min Rain = 0
KCR1 131026Z 28002KT 17/11 A2988 RMK A01 T01660108  RH  069%=      5-min Rain = 0
KCR1 131027Z 28002KT 17/11 A2988 RMK A01 T01650107  RH  069%=      5-min Rain = 0
KCR1 131028Z 28002KT 17/11 A2988 RMK A01 T01650108  RH  069%=      5-min Rain = 0
KCR1 131029Z 28002KT 17/11 A2988 RMK A01 T01650108  RH  069%=      5-min Rain = 0
KCR1 131030Z 28002KT 16/11 A2988 RMK A01 T01640108  RH  069%=      5-min Rain = 0
KCR1 131031Z 28001KT 16/11 A2988 RMK A01 T01640108  RH  069%=      5-min Rain = 0
KCR1 131032Z 28001KT 16/11 A2988 RMK A01 T01640108  RH  069%=      5-min Rain = 0
KCR1 131033Z 28001KT 16/11 A2988 RMK A01 T01640108  RH  069%=      5-min Rain = 0
KCR1 131034Z 27001KT 16/11 A2988 RMK A01 T01640107  RH  069%=      5-min Rain = 0
KCR1 131035Z 26001KT 16/11 A2988 RMK A01 T01640107  RH  069%=      5-min Rain = 0
KCR1 131036Z 26001KT 17/11 A2988 RMK A01 T01650107  RH  069%=      5-min Rain = 0
KCR1 131037Z 26001KT 17/11 A2988 RMK A01 T01650107  RH  068%=      5-min Rain = 0
KCR1 131038Z 26001KT 17/11 A2988 RMK A01 T01660107  RH  068%=      5-min Rain = 0
KCR1 131039Z 26001KT 17/11 A2988 RMK A01 T01650107  RH  068%=      5-min Rain = 0
KCR1 131040Z 25001KT 17/11 A2988 RMK A01 T01660107  RH  068%=      5-min Rain = 0
KCR1 131041Z 26001KT 17/11 A2988 RMK A01 T01650107  RH  068%=      5-min Rain = 0
KCR1 131042Z 26001KT 17/11 A2988 RMK A01 T01650107  RH  069%=      5-min Rain = 0
KCR1 131043Z 26001KT 17/11 A2988 RMK A01 T01650107  RH  068%=      5-min Rain = 0
KCR1 131044Z 26001KT 17/11 A2988 RMK A01 T01660107  RH  068%=      5-min Rain = 0
KCR1 131045Z 26001KT 17/11 A2988 RMK A01 T01660107  RH  068%=      5-min Rain = 0
KCR1 131046Z 26001KT 17/11 A2988 RMK A01 T01650107  RH  069%=      5-min Rain = 0
KCR1 131047Z 26000KT 17/11 A2988 RMK A01 T01650107  RH  068%=      5-min Rain = 0
KCR1 131048Z 26000KT 17/11 A2988 RMK A01 T01660106  RH  068%=      5-min Rain = 0
KCR1 131049Z 00000KT 17/11 A2988 RMK A01 T01660107  RH  068%=      5-min Rain = 0
KCR1 131050Z 00000KT 17/11 A2988 RMK A01 T01660107  RH  068%=      5-min Rain = 0
KCR1 131051Z 00000KT 17/11 A2988 RMK A01 T01660107  RH  068%=      5-min Rain = 0
KCR1 131052Z 00000KT 17/11 A2988 RMK A01 T01660106  RH  068%=      5-min Rain = 0
KCR1 131053Z 00000KT 17/11 A2988 RMK A01 T01660105  RH  068%=      5-min Rain = 0
KCR1 131054Z 00000KT 17/11 A2988 RMK A01 T01660105  RH  067%=      5-min Rain = 0
KCR1 131055Z 05000KT 17/11 A2988 RMK A01 T01660105  RH  067%=      5-min Rain = 0
KCR1 131056Z 08001KT 17/10 A2988 RMK A01 T01660104  RH  067%=      5-min Rain = 0
KCR1 131057Z 07002KT 17/10 A2987 RMK A01 T01660104  RH  067%=      5-min Rain = 0
KCR1 131058Z 07002KT 17/10 A2987 RMK A01 T01650104  RH  067%=      5-min Rain = 0
KCR1 131059Z 06002KT 17/10 A2987 RMK A01 T01650104  RH  067%=      5-min Rain = 0
KCR1 131100Z 06002KT 17/10 A2987 RMK A01 T01650103  RH  067%=      5-min Rain = 0
KCR1 131101Z 04002KT 17/10 A2987 RMK A01 T01650103  RH  067%=      5-min Rain = 0
KCR1 131102Z 04002KT 17/10 A2987 RMK A01 T01650103  RH  067%=      5-min Rain = 0
KCR1 131103Z 03002KT 16/10 A2987 RMK A01 T01640103  RH  067%=      5-min Rain = 0
KCR1 131104Z 02002KT 16/10 A2988 RMK A01 T01630103  RH  067%=      5-min Rain = 0
KCR1 131105Z 01002KT 16/10 A2988 RMK A01 T01630102  RH  067%=      5-min Rain = 0
KCR1 131106Z 01002KT 16/10 A2988 RMK A01 T01620102  RH  068%=      5-min Rain = 0
KCR1 131107Z 02002KT 16/10 A2988 RMK A01 T01620102  RH  068%=      5-min Rain = 0
KCR1 131108Z 02002KT 16/10 A2988 RMK A01 T01620103  RH  068%=      5-min Rain = 0
KCR1 131109Z 03002KT 16/10 A2988 RMK A01 T01620102  RH  068%=      5-min Rain = 0
KCR1 131110Z 03003KT 16/10 A2988 RMK A01 T01620102  RH  068%=      5-min Rain = 0
KCR1 131111Z 03003KT 16/10 A2988 RMK A01 T01620103  RH  068%=      5-min Rain = 0
KCR1 131112Z 03003KT 16/10 A2988 RMK A01 T01610102  RH  068%=      5-min Rain = 0
KCR1 131113Z 03003KT 16/10 A2988 RMK A01 T01610103  RH  068%=      5-min Rain = 0
KCR1 131114Z 03003KT 16/10 A2988 RMK A01 T01600102  RH  069%=      5-min Rain = 0
KCR1 131115Z 03003KT 16/10 A2988 RMK A01 T01600103  RH  069%=      5-min Rain = 0
KCR1 131116Z 03003KT 16/10 A2988 RMK A01 T01600102  RH  069%=      5-min Rain = 0
KCR1 131117Z 03003KT 16/10 A2988 RMK A01 T01600102  RH  069%=      5-min Rain = 0
KCR1 131118Z 02003KT 16/10 A2988 RMK A01 T01600103  RH  069%=      5-min Rain = 0
KCR1 131119Z 01003KT 16/10 A2988 RMK A01 T01600103  RH  069%=      5-min Rain = 0
KCR1 131120Z 01002KT 16/10 A2988 RMK A01 T01600103  RH  069%=      5-min Rain = 0
KCR1 131121Z 02002KT 16/10 A2988 RMK A01 T01600103  RH  069%=      5-min Rain = 0
KCR1 131122Z 02002KT 16/10 A2988 RMK A01 T01600103  RH  069%=      5-min Rain = 0
KCR1 131123Z 02002KT 16/10 A2988 RMK A01 T01600103  RH  069%=      5-min Rain = 0
KCR1 131124Z 02003KT 16/10 A2988 RMK A01 T01600104  RH  069%=      5-min Rain = 0
KCR1 131125Z 01003KT 16/10 A2988 RMK A01 T01610103  RH  069%=      5-min Rain = 0
KCR1 131126Z 36003KT 16/10 A2988 RMK A01 T01610103  RH  068%=      5-min Rain = 0
KCR1 131127Z 34003KT 16/10 A2988 RMK A01 T01620103  RH  068%=      5-min Rain = 0
KCR1 131128Z 33003KT 16/10 A2988 RMK A01 T01630102  RH  067%=      5-min Rain = 0
KCR1 131129Z 33002KT 16/10 A2988 RMK A01 T01640102  RH  067%=      5-min Rain = 0
KCR1 131130Z 33002KT 17/10 A2988 RMK A01 T01650102  RH  067%=      5-min Rain = 0
KCR1 131131Z 31002KT 17/10 A2988 RMK A01 T01650103  RH  067%=      5-min Rain = 0
KCR1 131132Z 31003KT 16/10 A2988 RMK A01 T01640103  RH  067%=      5-min Rain = 0
KCR1 131133Z 30003KT 16/10 A2988 RMK A01 T01630103  RH  068%=      5-min Rain = 0
KCR1 131134Z 30003KT 16/10 A2988 RMK A01 T01630103  RH  068%=      5-min Rain = 0
KCR1 131135Z 29003KT 16/10 A2988 RMK A01 T01630103  RH  068%=      5-min Rain = 0
KCR1 131136Z 29004KT 16/10 A2988 RMK A01 T01630103  RH  068%=      5-min Rain = 0
KCR1 131137Z 28004KT 16/10 A2988 RMK A01 T01630104  RH  068%=      5-min Rain = 0
KCR1 131138Z 28004KT 16/10 A2988 RMK A01 T01610104  RH  069%=      5-min Rain = 0
KCR1 131139Z 29003KT 16/10 A2988 RMK A01 T01590104  RH  070%=      5-min Rain = 0
KCR1 131140Z 29002KT 16/10 A2988 RMK A01 T01590104  RH  070%=      5-min Rain = 0
KCR1 131141Z 30002KT 16/10 A2988 RMK A01 T01590104  RH  070%=      5-min Rain = 0
KCR1 131142Z 30002KT 16/10 A2988 RMK A01 T01590104  RH  070%=      5-min Rain = 0
KCR1 131143Z 30001KT 16/10 A2988 RMK A01 T01600104  RH  069%=      5-min Rain = 0
KCR1 131144Z 30001KT 16/10 A2988 RMK A01 T01600104  RH  069%=      5-min Rain = 0
KCR1 131145Z 30001KT 16/11 A2988 RMK A01 T01600105  RH  069%=      5-min Rain = 0
KCR1 131146Z 30001KT 16/11 A2988 RMK A01 T01610105  RH  069%=      5-min Rain = 0
KCR1 131147Z 29002KT 16/11 A2988 RMK A01 T01610105  RH  069%=      5-min Rain = 0
KCR1 131148Z 29003KT 16/11 A2988 RMK A01 T01610105  RH  069%=      5-min Rain = 0
KCR1 131149Z 30003KT 16/11 A2988 RMK A01 T01620105  RH  069%=      5-min Rain = 0
KCR1 131150Z 30003KT 16/11 A2988 RMK A01 T01610105  RH  069%=      5-min Rain = 0
KCR1 131151Z 30004KT 16/11 A2988 RMK A01 T01610105  RH  069%=      5-min Rain = 0
KCR1 131152Z 30004KT 16/11 A2988 RMK A01 T01610105  RH  069%=      5-min Rain = 0
KCR1 131153Z 30003KT 16/11 A2988 RMK A01 T01610105  RH  069%=      5-min Rain = 0
KCR1 131154Z 30004KT 16/11 A2988 RMK A01 T01600105  RH  070%=      5-min Rain = 0
KCR1 131155Z 30003KT 16/11 A2988 RMK A01 T01590105  RH  070%=      5-min Rain = 0
KCR1 131156Z 30003KT 16/11 A2988 RMK A01 T01590105  RH  071%=      5-min Rain = 0
KCR1 131157Z 30003KT 16/11 A2988 RMK A01 T01590106  RH  071%=      5-min Rain = 0
KCR1 131158Z 31003KT 16/11 A2988 RMK A01 T01580105  RH  071%=      5-min Rain = 0
KCR1 131159Z 32002KT 16/11 A2988 RMK A01 T01590105  RH  070%=      5-min Rain = 0
KCR1 131200Z 32002KT 16/11 A2988 RMK A01 T01600105  RH  070%=      5-min Rain = 0
KCR1 131201Z 34002KT 16/11 A2988 RMK A01 T01600106  RH  070%=      5-min Rain = 0
KCR1 131202Z 35002KT 16/11 A2988 RMK A01 T01600105  RH  070%=      5-min Rain = 0
KCR1 131203Z 35002KT 16/11 A2988 RMK A01 T01600106  RH  070%=      5-min Rain = 0
KCR1 131204Z 00003KT 16/11 A2988 RMK A01 T01600106  RH  070%=      5-min Rain = 0
KCR1 131205Z 00003KT 16/11 A2988 RMK A01 T01600106  RH  070%=      5-min Rain = 0
KCR1 131206Z 00003KT 16/11 A2988 RMK A01 T01590106  RH  071%=      5-min Rain = 0
KCR1 131207Z 00003KT 16/11 A2988 RMK A01 T01590106  RH  071%=      5-min Rain = 0
KCR1 131208Z 01003KT 16/11 A2988 RMK A01 T01590105  RH  070%=      5-min Rain = 0
KCR1 131209Z 01003KT 16/11 A2988 RMK A01 T01590105  RH  070%=      5-min Rain = 0
KCR1 131210Z 02003KT 16/11 A2988 RMK A01 T01590105  RH  070%=      5-min Rain = 0
KCR1 131211Z 02004KT 16/11 A2988 RMK A01 T01590105  RH  070%=      5-min Rain = 0
KCR1 131212Z 02004KT 16/11 A2988 RMK A01 T01590105  RH  070%=      5-min Rain = 0
KCR1 131213Z 02004KT 16/11 A2988 RMK A01 T01590105  RH  070%=      5-min Rain = 0
KCR1 131214Z 02003KT 16/11 A2988 RMK A01 T01590105  RH  070%=      5-min Rain = 0
KCR1 131215Z 01004KT 16/11 A2988 RMK A01 T01580105  RH  071%=      5-min Rain = 0
KCR1 131216Z 00004KT 16/11 A2988 RMK A01 T01580105  RH  071%=      5-min Rain = 0
KCR1 131217Z 00004KT 16/10 A2988 RMK A01 T01570104  RH  071%=      5-min Rain = 0
KCR1 131218Z 00004KT 16/10 A2988 RMK A01 T01570104  RH  071%=      5-min Rain = 0
KCR1 131219Z 01004KT 16/11 A2988 RMK A01 T01570105  RH  071%=      5-min Rain = 0
KCR1 131220Z 01004KT 16/11 A2988 RMK A01 T01570105  RH  071%=      5-min Rain = 0
KCR1 131221Z 02004KT 16/10 A2988 RMK A01 T01570104  RH  071%=      5-min Rain = 0
KCR1 131222Z 02004KT 16/11 A2988 RMK A01 T01560105  RH  071%=      5-min Rain = 0
KCR1 131223Z 03004KT 16/11 A2988 RMK A01 T01560105  RH  071%=      5-min Rain = 0
KCR1 131224Z 02004KT 16/10 A2988 RMK A01 T01550104  RH  072%=      5-min Rain = 0
KCR1 131225Z 02004KT 15/10 A2988 RMK A01 T01540104  RH  072%=      5-min Rain = 0
KCR1 131226Z 02003KT 15/10 A2988 RMK A01 T01540104  RH  072%=      5-min Rain = 0
KCR1 131227Z 02003KT 15/10 A2988 RMK A01 T01540104  RH  072%=      5-min Rain = 0
KCR1 131228Z 02003KT 15/10 A2988 RMK A01 T01530104  RH  072%=      5-min Rain = 0
KCR1 131229Z 02004KT 15/10 A2988 RMK A01 T01530104  RH  073%=      5-min Rain = 0
KCR1 131230Z 03004KT 15/11 A2988 RMK A01 T01530105  RH  073%=      5-min Rain = 0
KCR1 131231Z 03004KT 15/11 A2988 RMK A01 T01520105  RH  073%=      5-min Rain = 0
KCR1 131232Z 03004KT 15/11 A2988 RMK A01 T01520106  RH  074%=      5-min Rain = 0
KCR1 131233Z 04005KT 15/11 A2988 RMK A01 T01510106  RH  074%=      5-min Rain = 0
KCR1 131234Z 04005KT 15/11 A2988 RMK A01 T01510106  RH  074%=      5-min Rain = 0
KCR1 131235Z 04005KT 15/11 A2988 RMK A01 T01510106  RH  075%=      5-min Rain = 0
KCR1 131236Z 04004KT 15/11 A2988 RMK A01 T01510106  RH  074%=      5-min Rain = 0
KCR1 131237Z 04004KT 15/11 A2988 RMK A01 T01500105  RH  074%=      5-min Rain = 0
KCR1 131238Z 04004KT 15/11 A2988 RMK A01 T01510105  RH  074%=      5-min Rain = 0
KCR1 131239Z 04003KT 15/11 A2989 RMK A01 T01510105  RH  074%=      5-min Rain = 0
KCR1 131240Z 04003KT 15/11 A2989 RMK A01 T01520105  RH  073%=      5-min Rain = 0
KCR1 131241Z 04003KT 15/11 A2989 RMK A01 T01520105  RH  073%=      5-min Rain = 0
KCR1 131242Z 04004KT 15/11 A2989 RMK A01 T01530105  RH  073%=      5-min Rain = 0
KCR1 131243Z 04004KT 15/11 A2989 RMK A01 T01540105  RH  072%=      5-min Rain = 0
KCR1 131244Z 04004KT 16/11 A2989 RMK A01 T01550105  RH  072%=      5-min Rain = 0
KCR1 131245Z 04004KT 16/11 A2989 RMK A01 T01550106  RH  072%=      5-min Rain = 0
KCR1 131246Z 04004KT 16/11 A2989 RMK A01 T01560106  RH  072%=      5-min Rain = 0
KCR1 131247Z 04004KT 16/11 A2989 RMK A01 T01560106  RH  072%=      5-min Rain = 0
KCR1 131248Z 04004KT 16/11 A2989 RMK A01 T01570106  RH  072%=      5-min Rain = 0
KCR1 131249Z 04004KT 16/11 A2989 RMK A01 T01570106  RH  072%=      5-min Rain = 0
KCR1 131250Z 03004KT 16/11 A2989 RMK A01 T01580106  RH  071%=      5-min Rain = 0
KCR1 131251Z 03004KT 16/11 A2989 RMK A01 T01590107  RH  071%=      5-min Rain = 0
KCR1 131252Z 03004KT 16/11 A2989 RMK A01 T01590107  RH  071%=      5-min Rain = 0
KCR1 131253Z 03004KT 16/11 A2989 RMK A01 T01600107  RH  071%=      5-min Rain = 0
KCR1 131254Z 03004KT 16/11 A2989 RMK A01 T01610108  RH  071%=      5-min Rain = 0
KCR1 131255Z 03004KT 16/11 A2989 RMK A01 T01610108  RH  070%=      5-min Rain = 0
KCR1 131256Z 03004KT 16/11 A2989 RMK A01 T01620108  RH  070%=      5-min Rain = 0
KCR1 131257Z 03004KT 16/11 A2989 RMK A01 T01630109  RH  070%=      5-min Rain = 0
KCR1 131258Z 03004KT 16/11 A2989 RMK A01 T01630109  RH  070%=      5-min Rain = 0
KCR1 131259Z 02004KT 16/11 A2989 RMK A01 T01630109  RH  070%=      5-min Rain = 0
KCR1 131300Z 02004KT 16/11 A2989 RMK A01 T01640109  RH  070%=      5-min Rain = 0
KCR1 131301Z 01004KT 16/11 A2989 RMK A01 T01640109  RH  070%=      5-min Rain = 0
KCR1 131302Z 01003KT 17/11 A2989 RMK A01 T01650109  RH  069%=      5-min Rain = 0
KCR1 131303Z 02004KT 17/11 A2989 RMK A01 T01660108  RH  068%=      5-min Rain = 0
KCR1 131304Z 03004KT 17/11 A2989 RMK A01 T01670108  RH  068%=      5-min Rain = 0
KCR1 131305Z 03004KT 17/11 A2989 RMK A01 T01680109  RH  068%=      5-min Rain = 0
KCR1 131306Z 03004KT 17/11 A2989 RMK A01 T01680110  RH  069%=      5-min Rain = 0
KCR1 131307Z 03004KT 17/11 A2989 RMK A01 T01680111  RH  069%=      5-min Rain = 0
KCR1 131308Z 03004KT 17/11 A2989 RMK A01 T01690111  RH  068%=      5-min Rain = 0
KCR1 131309Z 03004KT 17/11 A2989 RMK A01 T01690111  RH  068%=      5-min Rain = 0
KCR1 131310Z 03003KT 17/11 A2989 RMK A01 T01700111  RH  068%=      5-min Rain = 0
KCR1 131311Z 03003KT 17/11 A2989 RMK A01 T01700110  RH  068%=      5-min Rain = 0
KCR1 131312Z 03003KT 17/11 A2989 RMK A01 T01700109  RH  067%=      5-min Rain = 0
KCR1 131313Z 02003KT 17/11 A2989 RMK A01 T01710110  RH  067%=      5-min Rain = 0
KCR1 131314Z 02003KT 17/11 A2989 RMK A01 T01720109  RH  067%=      5-min Rain = 0
KCR1 131315Z 02003KT 17/11 A2989 RMK A01 T01720108  RH  066%=      5-min Rain = 0
KCR1 131316Z 02003KT 17/11 A2989 RMK A01 T01720108  RH  066%=      5-min Rain = 0
KCR1 131317Z 03003KT 17/11 A2989 RMK A01 T01730109  RH  066%=      5-min Rain = 0
KCR1 131318Z 03003KT 17/11 A2989 RMK A01 T01730110  RH  066%=      5-min Rain = 0
KCR1 131319Z 03003KT 17/11 A2989 RMK A01 T01730110  RH  066%=      5-min Rain = 0
KCR1 131320Z 03003KT 17/11 A2989 RMK A01 T01740111  RH  066%=      5-min Rain = 0
KCR1 131321Z 03003KT 17/11 A2989 RMK A01 T01740111  RH  066%=      5-min Rain = 0
KCR1 131322Z 03003KT 18/11 A2989 RMK A01 T01750111  RH  066%=      5-min Rain = 0
KCR1 131323Z 04003KT 18/11 A2989 RMK A01 T01750112  RH  066%=      5-min Rain = 0
KCR1 131324Z 04004KT 18/11 A2989 RMK A01 T01760112  RH  066%=      5-min Rain = 0
KCR1 131325Z 04004KT 18/11 A2989 RMK A01 T01760112  RH  066%=      5-min Rain = 0
KCR1 131326Z 04004KT 18/11 A2989 RMK A01 T01770113  RH  066%=      5-min Rain = 0
KCR1 131327Z 04004KT 18/11 A2989 RMK A01 T01770114  RH  066%=      5-min Rain = 0
KCR1 131328Z 04003KT 18/11 A2989 RMK A01 T01780113  RH  066%=      5-min Rain = 0
KCR1 131329Z 03003KT 18/11 A2989 RMK A01 T01790114  RH  066%=      5-min Rain = 0
KCR1 131330Z 03003KT 18/11 A2989 RMK A01 T01800114  RH  065%=      5-min Rain = 0
KCR1 131331Z 02003KT 18/11 A2989 RMK A01 T01810113  RH  065%=      5-min Rain = 0
KCR1 131332Z 03003KT 18/12 A2989 RMK A01 T01810115  RH  065%=      5-min Rain = 0
KCR1 131333Z 04003KT 18/11 A2989 RMK A01 T01820114  RH  064%=      5-min Rain = 0
KCR1 131334Z 04003KT 18/12 A2989 RMK A01 T01830115  RH  064%=      5-min Rain = 0
KCR1 131335Z 05003KT 19/12 A2989 RMK A01 T01850115  RH  064%=      5-min Rain = 0
KCR1 131336Z 04004KT 19/12 A2989 RMK A01 T01860115  RH  063%=      5-min Rain = 0
KCR1 131337Z 03003KT 19/11 A2989 RMK A01 T01860113  RH  062%=      5-min Rain = 0
KCR1 131338Z 04003KT 19/12 A2989 RMK A01 T01870115  RH  063%=      5-min Rain = 0
KCR1 131339Z 04003KT 19/11 A2989 RMK A01 T01870112  RH  062%=      5-min Rain = 0
KCR1 131340Z 04003KT 19/11 A2989 RMK A01 T01880114  RH  062%=      5-min Rain = 0
KCR1 131341Z 04003KT 19/12 A2989 RMK A01 T01890115  RH  062%=      5-min Rain = 0
KCR1 131342Z 05003KT 19/11 A2989 RMK A01 T01900114  RH  062%=      5-min Rain = 0
KCR1 131343Z 05003KT 19/12 A2989 RMK A01 T01900115  RH  062%=      5-min Rain = 0
KCR1 131344Z 05004KT 19/11 A2989 RMK A01 T01900114  RH  061%=      5-min Rain = 0
KCR1 131345Z 05004KT 19/11 A2989 RMK A01 T01910113  RH  061%=      5-min Rain = 0
KCR1 131346Z 04003KT 19/11 A2989 RMK A01 T01910113  RH  061%=      5-min Rain = 0
KCR1 131347Z 04003KT 19/12 A2989 RMK A01 T01910115  RH  061%=      5-min Rain = 0
KCR1 131348Z 05003KT 19/12 A2989 RMK A01 T01920115  RH  061%=      5-min Rain = 0
KCR1 131349Z 05003KT 19/12 A2989 RMK A01 T01920117  RH  062%=      5-min Rain = 0
KCR1 131350Z 05003KT 19/12 A2989 RMK A01 T01940117  RH  061%=      5-min Rain = 0
KCR1 131351Z 05003KT 20/12 A2989 RMK A01 T01950117  RH  060%=      5-min Rain = 0
KCR1 131352Z 05004KT 20/12 A2989 RMK A01 T01960115  RH  060%=      5-min Rain = 0
KCR1 131353Z 05003KT 20/12 A2989 RMK A01 T01960116  RH  060%=      5-min Rain = 0
KCR1 131354Z 05003KT 20/12 A2989 RMK A01 T01970116  RH  060%=      5-min Rain = 0
KCR1 131355Z 05003KT 20/12 A2989 RMK A01 T01980117  RH  059%=      5-min Rain = 0
KCR1 131356Z 05003KT 20/12 A2989 RMK A01 T01990116  RH  059%=      5-min Rain = 0
KCR1 131357Z 05003KT 20/11 A2989 RMK A01 T01990113  RH  057%=      5-min Rain = 0
KCR1 131358Z 04003KT 20/11 A2989 RMK A01 T02000114  RH  058%=      5-min Rain = 0
KCR1 131359Z 06003KT 20/11 A2989 RMK A01 T02000114  RH  058%=      5-min Rain = 0
KCR1 131400Z 05003KT 20/11 A2989 RMK A01 T02010113  RH  057%=      5-min Rain = 0
KCR1 131401Z 05003KT 20/11 A2989 RMK A01 T02010113  RH  057%=      5-min Rain = 0
KCR1 131402Z 05003KT 20/11 A2989 RMK A01 T02010113  RH  057%=      5-min Rain = 0
KCR1 131403Z 04003KT 20/11 A2989 RMK A01 T02010113  RH  057%=      5-min Rain = 0
KCR1 131404Z 05004KT 20/12 A2989 RMK A01 T02020115  RH  057%=      5-min Rain = 0
KCR1 131405Z 06004KT 20/11 A2989 RMK A01 T02030113  RH  056%=      5-min Rain = 0
KCR1 131406Z 05004KT 20/11 A2989 RMK A01 T02040113  RH  056%=      5-min Rain = 0
KCR1 131407Z 05004KT 20/11 A2989 RMK A01 T02040114  RH  056%=      5-min Rain = 0
KCR1 131408Z 05003KT 21/11 A2989 RMK A01 T02050114  RH  056%=      5-min Rain = 0
KCR1 131409Z 05003KT 21/11 A2989 RMK A01 T02060114  RH  056%=      5-min Rain = 0
KCR1 131410Z 05003KT 21/11 A2989 RMK A01 T02070114  RH  055%=      5-min Rain = 0
KCR1 131411Z 05003KT 21/11 A2989 RMK A01 T02070113  RH  055%=      5-min Rain = 0
KCR1 131412Z 05003KT 21/11 A2989 RMK A01 T02080114  RH  055%=      5-min Rain = 0
KCR1 131413Z 05003KT 21/12 A2989 RMK A01 T02080115  RH  055%=      5-min Rain = 0
KCR1 131414Z 05003KT 21/12 A2989 RMK A01 T02090115  RH  055%=      5-min Rain = 0
KCR1 131415Z 04003KT 21/12 A2989 RMK A01 T02100115  RH  055%=      5-min Rain = 0
KCR1 131416Z 04003KT 21/12 A2989 RMK A01 T02110117  RH  055%=      5-min Rain = 0
KCR1 131417Z 06003KT 21/12 A2989 RMK A01 T02120117  RH  055%=      5-min Rain = 0
KCR1 131418Z 05002KT 21/12 A2989 RMK A01 T02120116  RH  054%=      5-min Rain = 0
KCR1 131419Z 06003KT 21/12 A2989 RMK A01 T02140118  RH  054%=      5-min Rain = 0
KCR1 131420Z 05002KT 22/12 A2989 RMK A01 T02150115  RH  053%=      5-min Rain = 0
KCR1 131421Z 04003KT 22/12 A2989 RMK A01 T02150116  RH  053%=      5-min Rain = 0
KCR1 131422Z 03003KT 22/12 A2989 RMK A01 T02150118  RH  054%=      5-min Rain = 0
KCR1 131423Z 04003KT 22/12 A2989 RMK A01 T02160117  RH  053%=      5-min Rain = 0
KCR1 131424Z 07002KT 22/12 A2989 RMK A01 T02170116  RH  053%=      5-min Rain = 0
KCR1 131425Z 05002KT 22/12 A2989 RMK A01 T02170115  RH  052%=      5-min Rain = 0
KCR1 131426Z 07002KT 22/12 A2989 RMK A01 T02180116  RH  052%=      5-min Rain = 0
KCR1 131427Z 06001KT 22/11 A299 RMK A01 T02190114  RH  051%=      5-min Rain = 0
KCR1 131428Z 05002KT 22/11 A299 RMK A01 T02200114  RH  051%=      5-min Rain = 0
KCR1 131429Z 06003KT 22/12 A299 RMK A01 T02210116  RH  051%=      5-min Rain = 0
KCR1 131430Z 07002KT 22/12 A299 RMK A01 T02230116  RH  051%=      5-min Rain = 0
KCR1 131431Z 06002KT 22/11 A299 RMK A01 T02240114  RH  050%=      5-min Rain = 0
KCR1 131432Z 05002KT 22/12 A299 RMK A01 T02240117  RH  051%=      5-min Rain = 0
KCR1 131433Z 02001KT 22/12 A299 RMK A01 T02240116  RH  050%=      5-min Rain = 0
KCR1 131434Z 03001KT 23/12 A299 RMK A01 T02250116  RH  050%=      5-min Rain = 0
KCR1 131435Z 10001KT 23/12 A299 RMK A01 T02260115  RH  049%=      5-min Rain = 0
KCR1 131436Z 13002KT 23/11 A299 RMK A01 T02270113  RH  049%=      5-min Rain = 0
KCR1 131437Z 13002KT 23/11 A299 RMK A01 T02270112  RH  048%=      5-min Rain = 0
KCR1 131438Z 13001KT 23/11 A299 RMK A01 T02260112  RH  048%=      5-min Rain = 0
KCR1 131439Z 13000KT 23/11 A299 RMK A01 T02260113  RH  049%=      5-min Rain = 0
KCR1 131440Z 13001KT 23/12 A299 RMK A01 T02280115  RH  049%=      5-min Rain = 0
KCR1 131441Z 20001KT 23/11 A299 RMK A01 T02290114  RH  048%=      5-min Rain = 0
KCR1 131442Z 21001KT 23/12 A299 RMK A01 T02310115  RH  048%=      5-min Rain = 0
KCR1 131443Z 19000KT 23/12 A299 RMK A01 T02310115  RH  048%=      5-min Rain = 0
KCR1 131444Z 08001KT 23/12 A299 RMK A01 T02320116  RH  048%=      5-min Rain = 0
KCR1 131445Z 13001KT 23/12 A299 RMK A01 T02340117  RH  048%=      5-min Rain = 0
KCR1 131446Z 16002KT 24/12 A299 RMK A01 T02350115  RH  047%=      5-min Rain = 0
KCR1 131447Z 16002KT 24/12 A299 RMK A01 T02350115  RH  047%=      5-min Rain = 0
KCR1 131448Z 17001KT 24/11 A299 RMK A01 T02350114  RH  047%=      5-min Rain = 0
KCR1 131449Z 20001KT 23/11 A2989 RMK A01 T02340114  RH  047%=      5-min Rain = 0
KCR1 131450Z 16001KT 23/12 A2989 RMK A01 T02340115  RH  047%=      5-min Rain = 0
KCR1 131451Z 15002KT 24/11 A2989 RMK A01 T02350114  RH  046%=      5-min Rain = 0
KCR1 131452Z 16001KT 24/11 A299 RMK A01 T02350114  RH  047%=      5-min Rain = 0
KCR1 131453Z 15002KT 24/12 A299 RMK A01 T02370117  RH  047%=      5-min Rain = 0
KCR1 131454Z 15003KT 24/12 A299 RMK A01 T02390117  RH  046%=      5-min Rain = 0
KCR1 131455Z 16002KT 24/12 A299 RMK A01 T02390116  RH  046%=      5-min Rain = 0
KCR1 131456Z 18002KT 24/12 A299 RMK A01 T02390117  RH  046%=      5-min Rain = 0
KCR1 131457Z 19002KT 24/12 A299 RMK A01 T02400115  RH  046%=      5-min Rain = 0
KCR1 131458Z 20002KT 24/12 A299 RMK A01 T02390115  RH  046%=      5-min Rain = 0
KCR1 131459Z 20001KT 24/12 A299 RMK A01 T02390115  RH  046%=      5-min Rain = 0
KCR1 131500Z 24000KT 24/11 A299 RMK A01 T02380114  RH  046%=      5-min Rain = 0
KCR1 131501Z 30000KT 24/12 A299 RMK A01 T02380115  RH  046%=      5-min Rain = 0
KCR1 131502Z 09000KT 24/12 A299 RMK A01 T02390116  RH  046%=      5-min Rain = 0
KCR1 131503Z 12002KT 24/12 A299 RMK A01 T02410117  RH  046%=      5-min Rain = 0
KCR1 131504Z 15003KT 24/12 A299 RMK A01 T02430117  RH  045%=      5-min Rain = 0
KCR1 131505Z 16003KT 24/12 A299 RMK A01 T02440115  RH  044%=      5-min Rain = 0
KCR1 131506Z 17002KT 24/11 A299 RMK A01 T02440114  RH  044%=      5-min Rain = 0
KCR1 131507Z 15002KT 24/11 A299 RMK A01 T02430113  RH  044%=      5-min Rain = 0
KCR1 131508Z 14002KT 24/12 A299 RMK A01 T02430115  RH  045%=      5-min Rain = 0
KCR1 131509Z 14001KT 24/11 A299 RMK A01 T02430112  RH  044%=      5-min Rain = 0
KCR1 131510Z 15001KT 24/11 A299 RMK A01 T02440113  RH  044%=      5-min Rain = 0
KCR1 131511Z 12002KT 25/11 A299 RMK A01 T02450114  RH  044%=      5-min Rain = 0
KCR1 131512Z 16001KT 25/11 A299 RMK A01 T02460114  RH  043%=      5-min Rain = 0
KCR1 131513Z 13002KT 25/12 A299 RMK A01 T02480117  RH  044%=      5-min Rain = 0
KCR1 131514Z 14003KT 25/12 A299 RMK A01 T02510115  RH  043%=      5-min Rain = 0
KCR1 131515Z 16003KT 25/11 A299 RMK A01 T02510112  RH  042%=      5-min Rain = 0
KCR1 131516Z 20003KT 25/11 A299 RMK A01 T02500112  RH  042%=      5-min Rain = 0
KCR1 131517Z 21003KT 25/11 A299 RMK A01 T02490113  RH  043%=      5-min Rain = 0
KCR1 131518Z 20003KT 25/11 A299 RMK A01 T02490114  RH  043%=      5-min Rain = 0
KCR1 131519Z 19003KT 25/12 A299 RMK A01 T02490116  RH  043%=      5-min Rain = 0
KCR1 131520Z 22003KT 25/11 A299 RMK A01 T02490114  RH  043%=      5-min Rain = 0
KCR1 131521Z 20003KT 25/12 A299 RMK A01 T02480115  RH  043%=      5-min Rain = 0
KCR1 131522Z 19002KT 25/12 A299 RMK A01 T02480115  RH  043%=      5-min Rain = 0
KCR1 131523Z 21002KT 25/12 A299 RMK A01 T02480116  RH  043%=      5-min Rain = 0
KCR1 131524Z 17001KT 25/12 A299 RMK A01 T02480116  RH  043%=      5-min Rain = 0
KCR1 131525Z 12001KT 25/12 A299 RMK A01 T02500117  RH  043%=      5-min Rain = 0
KCR1 131526Z 21001KT 25/12 A299 RMK A01 T02530118  RH  043%=      5-min Rain = 0
KCR1 131527Z 20004KT 26/12 A299 RMK A01 T02550116  RH  042%=      5-min Rain = 0
KCR1 131528Z 20003KT 25/11 A299 RMK A01 T02540113  RH  041%=      5-min Rain = 0
KCR1 131529Z 17003KT 25/12 A299 RMK A01 T02530116  RH  042%=      5-min Rain = 0
KCR1 131530Z 14002KT 25/12 A299 RMK A01 T02540117  RH  042%=      5-min Rain = 0
KCR1 131531Z 16001KT 26/12 A299 RMK A01 T02560119  RH  042%=      5-min Rain = 0
KCR1 131532Z 16002KT 26/12 A299 RMK A01 T02580120  RH  042%=      5-min Rain = 0
KCR1 131533Z 20004KT 26/12 A299 RMK A01 T02610118  RH  041%=      5-min Rain = 0
KCR1 131534Z 21005KT 26/12 A299 RMK A01 T02610116  RH  040%=      5-min Rain = 0
KCR1 131535Z 22004KT 26/11 A299 RMK A01 T02590114  RH  040%=      5-min Rain = 0
KCR1 131536Z 22004KT 26/12 A299 RMK A01 T02580115  RH  041%=      5-min Rain = 0
KCR1 131537Z 21004KT 26/12 A299 RMK A01 T02570115  RH  041%=      5-min Rain = 0
KCR1 131538Z 21004KT 26/11 A299 RMK A01 T02560114  RH  041%=      5-min Rain = 0
KCR1 131539Z 19005KT 26/12 A299 RMK A01 T02560117  RH  042%=      5-min Rain = 0
KCR1 131540Z 20004KT 26/12 A299 RMK A01 T02590117  RH  041%=      5-min Rain = 0
KCR1 131541Z 17003KT 26/12 A299 RMK A01 T02600116  RH  041%=      5-min Rain = 0
KCR1 131542Z 18004KT 26/12 A299 RMK A01 T02610117  RH  041%=      5-min Rain = 0
KCR1 131543Z 17002KT 26/12 A299 RMK A01 T02620119  RH  041%=      5-min Rain = 0
KCR1 131544Z 18003KT 26/12 A299 RMK A01 T02640119  RH  040%=      5-min Rain = 0
KCR1 131545Z 18003KT 26/12 A299 RMK A01 T02640116  RH  040%=      5-min Rain = 0
KCR1 131546Z 16004KT 26/12 A299 RMK A01 T02640118  RH  040%=      5-min Rain = 0
KCR1 131547Z 15004KT 27/12 A299 RMK A01 T02650116  RH  039%=      5-min Rain = 0
KCR1 131548Z 15002KT 26/11 A299 RMK A01 T02640113  RH  039%=      5-min Rain = 0
KCR1 131549Z 15004KT 26/12 A299 RMK A01 T02640116  RH  040%=      5-min Rain = 0
KCR1 131550Z 17005KT 27/12 A299 RMK A01 T02650120  RH  040%=      5-min Rain = 0
KCR1 131551Z 17005KT 27/12 A299 RMK A01 T02670119  RH  040%=      5-min Rain = 0
KCR1 131552Z 16003KT 27/12 A299 RMK A01 T02660120  RH  040%=      5-min Rain = 0
KCR1 131553Z 15001KT 27/12 A299 RMK A01 T02660118  RH  040%=      5-min Rain = 0
KCR1 131554Z 16000KT 27/12 A299 RMK A01 T02680116  RH  039%=      5-min Rain = 0
KCR1 131555Z 16003KT 27/12 A299 RMK A01 T02690118  RH  039%=      5-min Rain = 0
KCR1 131556Z 16003KT 27/12 A299 RMK A01 T02700119  RH  039%=      5-min Rain = 0
KCR1 131557Z 19003KT 27/12 A299 RMK A01 T02700118  RH  039%=      5-min Rain = 0
KCR1 131558Z 18003KT 27/12 A299 RMK A01 T02700115  RH  038%=      5-min Rain = 0
KCR1 131559Z 18002KT 27/12 A299 RMK A01 T02680115  RH  039%=      5-min Rain = 0
KCR1 131600Z 18003KT 27/12 A299 RMK A01 T02680116  RH  039%=      5-min Rain = 0
KCR1 131601Z 20004KT 27/11 A299 RMK A01 T02700113  RH  038%=      5-min Rain = 0
KCR1 131602Z 22003KT 27/11 A299 RMK A01 T02700109  RH  036%=      5-min Rain = 0
KCR1 131603Z 21004KT 27/11 A299 RMK A01 T02700112  RH  037%=      5-min Rain = 0
KCR1 131604Z 21004KT 27/12 A299 RMK A01 T02700116  RH  038%=      5-min Rain = 0
KCR1 131605Z 21004KT 27/11 A299 RMK A01 T02700112  RH  037%=      5-min Rain = 0
KCR1 131606Z 23002KT 27/11 A299 RMK A01 T02680110  RH  037%=      5-min Rain = 0
KCR1 131607Z 21004KT 27/11 A299 RMK A01 T02670112  RH  038%=      5-min Rain = 0
KCR1 131608Z 19003KT 27/11 A299 RMK A01 T02690110  RH  037%=      5-min Rain = 0
KCR1 131609Z 22003KT 27/11 A299 RMK A01 T02710111  RH  037%=      5-min Rain = 0
KCR1 131610Z 19005KT 27/11 A2989 RMK A01 T02730110  RH  036%=      5-min Rain = 0
KCR1 131611Z 19004KT 28/11 A2989 RMK A01 T02760112  RH  036%=      5-min Rain = 0
KCR1 131612Z 17005KT 28/11 A2989 RMK A01 T02780111  RH  035%=      5-min Rain = 0
KCR1 131613Z 16006KT 28/11 A2989 RMK A01 T02780109  RH  035%=      5-min Rain = 0
KCR1 131614Z 17006KT 28/11 A2989 RMK A01 T02780109  RH  035%=      5-min Rain = 0
KCR1 131615Z 15005KT 28/11 A2989 RMK A01 T02770107  RH  035%=      5-min Rain = 0
KCR1 131616Z 17006KT 28/11 A2989 RMK A01 T02760109  RH  035%=      5-min Rain = 0
KCR1 131617Z 19006KT 28/11 A2989 RMK A01 T02760110  RH  036%=      5-min Rain = 0
KCR1 131618Z 19003KT 28/11 A299 RMK A01 T02760107  RH  035%=      5-min Rain = 0
KCR1 131619Z 20003KT 27/11 A299 RMK A01 T02740107  RH  035%=      5-min Rain = 0
KCR1 131620Z 22001KT 27/11 A299 RMK A01 T02730105  RH  035%=      5-min Rain = 0
KCR1 131621Z 20004KT 27/11 A2989 RMK A01 T02740108  RH  036%=      5-min Rain = 0
KCR1 131622Z 15003KT 28/11 A2989 RMK A01 T02760110  RH  036%=      5-min Rain = 0
KCR1 131623Z 16004KT 28/11 A2989 RMK A01 T02770112  RH  036%=      5-min Rain = 0
KCR1 131624Z 16002KT 28/11 A2989 RMK A01 T02780110  RH  035%=      5-min Rain = 0
KCR1 131625Z 19002KT 28/11 A2989 RMK A01 T02790110  RH  035%=      5-min Rain = 0
KCR1 131626Z 20004KT 28/11 A2989 RMK A01 T02790111  RH  035%=      5-min Rain = 0
KCR1 131627Z 19002KT 28/11 A2989 RMK A01 T02790110  RH  035%=      5-min Rain = 0
KCR1 131628Z 13003KT 28/11 A2989 RMK A01 T02780113  RH  036%=      5-min Rain = 0
KCR1 131629Z 13004KT 28/11 A2989 RMK A01 T02800114  RH  036%=      5-min Rain = 0
KCR1 131630Z 12003KT 28/12 A2989 RMK A01 T02810116  RH  036%=      5-min Rain = 0
KCR1 131631Z 14002KT 28/12 A2989 RMK A01 T02830117  RH  036%=      5-min Rain = 0
KCR1 131632Z 11001KT 29/12 A2989 RMK A01 T02850116  RH  035%=      5-min Rain = 0
KCR1 131633Z 12001KT 29/12 A2989 RMK A01 T02860115  RH  035%=      5-min Rain = 0
KCR1 131634Z 17000KT 29/11 A2989 RMK A01 T02870114  RH  034%=      5-min Rain = 0
KCR1 131635Z 15001KT 29/11 A2989 RMK A01 T02880114  RH  034%=      5-min Rain = 0
KCR1 131636Z 13003KT 29/12 A2989 RMK A01 T02880115  RH  034%=      5-min Rain = 0
KCR1 131637Z 14002KT 29/11 A2989 RMK A01 T02880114  RH  034%=      5-min Rain = 0
KCR1 131638Z 10001KT 29/12 A2989 RMK A01 T02850115  RH  035%=      5-min Rain = 0
KCR1 131639Z 28001KT 29/12 A2989 RMK A01 T02850116  RH  035%=      5-min Rain = 0
KCR1 131640Z 15004KT 29/12 A2989 RMK A01 T02860117  RH  035%=      5-min Rain = 0
KCR1 131641Z 14004KT 29/12 A2989 RMK A01 T02870116  RH  035%=      5-min Rain = 0
KCR1 131642Z 13004KT 29/12 A2988 RMK A01 T02860118  RH  035%=      5-min Rain = 0
KCR1 131643Z 14004KT 29/12 A2988 RMK A01 T02860117  RH  035%=      5-min Rain = 0
KCR1 131644Z 14004KT 29/12 A2988 RMK A01 T02880120  RH  035%=      5-min Rain = 0
KCR1 131645Z 15004KT 29/12 A2988 RMK A01 T02890117  RH  034%=      5-min Rain = 0
KCR1 131646Z 13003KT 29/12 A2988 RMK A01 T02860115  RH  035%=      5-min Rain = 0
KCR1 131647Z 13001KT 29/11 A2988 RMK A01 T02850112  RH  034%=      5-min Rain = 0
KCR1 131648Z 07001KT 28/11 A2988 RMK A01 T02840112  RH  034%=      5-min Rain = 0
KCR1 131649Z 36000KT 28/11 A2988 RMK A01 T02840113  RH  035%=      5-min Rain = 0
KCR1 131650Z 19001KT 29/11 A2988 RMK A01 T02850114  RH  035%=      5-min Rain = 0
KCR1 131651Z 26001KT 29/11 A2988 RMK A01 T02870113  RH  034%=      5-min Rain = 0
KCR1 131652Z 10002KT 29/12 A2988 RMK A01 T02870115  RH  034%=      5-min Rain = 0
KCR1 131653Z 10005KT 29/11 A2988 RMK A01 T02880113  RH  034%=      5-min Rain = 0
KCR1 131654Z 12005KT 29/11 A2988 RMK A01 T02870113  RH  034%=      5-min Rain = 0
KCR1 131655Z 10005KT 29/11 A2988 RMK A01 T02860112  RH  034%=      5-min Rain = 0
KCR1 131656Z 10003KT 29/11 A2988 RMK A01 T02850111  RH  034%=      5-min Rain = 0
KCR1 131657Z 10003KT 28/11 A2988 RMK A01 T02840111  RH  034%=      5-min Rain = 0
KCR1 131658Z 14006KT 29/12 A2988 RMK A01 T02850115  RH  035%=      5-min Rain = 0
KCR1 131659Z 14004KT 29/11 A2988 RMK A01 T02860112  RH  034%=      5-min Rain = 0
KCR1 131700Z 13004KT 29/12 A2988 RMK A01 T02870116  RH  035%=      5-min Rain = 0
KCR1 131701Z 08003KT 29/11 A2988 RMK A01 T02900114  RH  034%=      5-min Rain = 0
KCR1 131702Z 14004KT 29/11 A2988 RMK A01 T02910113  RH  033%=      5-min Rain = 0
KCR1 131703Z 15004KT 29/11 A2988 RMK A01 T02910112  RH  033%=      5-min Rain = 0
KCR1 131704Z 12003KT 29/11 A2988 RMK A01 T02890111  RH  033%=      5-min Rain = 0
KCR1 131705Z 11003KT 29/11 A2988 RMK A01 T02880111  RH  033%=      5-min Rain = 0
KCR1 131706Z 12003KT 29/11 A2988 RMK A01 T02870110  RH  033%=      5-min Rain = 0
KCR1 131707Z 10002KT 29/11 A2988 RMK A01 T02880105  RH  032%=      5-min Rain = 0
KCR1 131708Z 11002KT 29/11 A2988 RMK A01 T02870105  RH  032%=      5-min Rain = 0
KCR1 131709Z 13005KT 29/11 A2988 RMK A01 T02880108  RH  033%=      5-min Rain = 0
KCR1 131710Z 13004KT 29/11 A2988 RMK A01 T02900106  RH  032%=      5-min Rain = 0
KCR1 131711Z 13003KT 29/11 A2988 RMK A01 T02890106  RH  032%=      5-min Rain = 0
KCR1 131712Z 13004KT 29/11 A2988 RMK A01 T02890105  RH  032%=      5-min Rain = 0
KCR1 131713Z 12004KT 29/11 A2988 RMK A01 T02920110  RH  032%=      5-min Rain = 0
KCR1 131714Z 15003KT 30/11 A2988 RMK A01 T02950108  RH  031%=      5-min Rain = 0
KCR1 131715Z 17003KT 30/11 A2988 RMK A01 T02970114  RH  032%=      5-min Rain = 0
KCR1 131716Z 15004KT 30/11 A2988 RMK A01 T02990112  RH  031%=      5-min Rain = 0
KCR1 131717Z 12002KT 30/11 A2988 RMK A01 T02980108  RH  031%=      5-min Rain = 0
KCR1 131718Z 14004KT 30/11 A2988 RMK A01 T02960108  RH  031%=      5-min Rain = 0
KCR1 131719Z 14004KT 30/11 A2988 RMK A01 T02950106  RH  031%=      5-min Rain = 0
KCR1 131720Z 14005KT 30/11 A2988 RMK A01 T02950108  RH  031%=      5-min Rain = 0
KCR1 131721Z 13004KT 30/11 A2987 RMK A01 T02960107  RH  031%=      5-min Rain = 0
KCR1 131722Z 14004KT 30/11 A2988 RMK A01 T02960108  RH  031%=      5-min Rain = 0
KCR1 131723Z 16003KT 30/10 A2987 RMK A01 T02970104  RH  030%=      5-min Rain = 0
KCR1 131724Z 18005KT 30/11 A2987 RMK A01 T02960107  RH  031%=      5-min Rain = 0
KCR1 131725Z 16005KT 30/11 A2987 RMK A01 T02960107  RH  031%=      5-min Rain = 0
KCR1 131726Z 14005KT 30/11 A2987 RMK A01 T02980107  RH  031%=      5-min Rain = 0
KCR1 131727Z 12003KT 30/11 A2987 RMK A01 T02970107  RH  031%=      5-min Rain = 0
KCR1 131728Z 14003KT 30/11 A2987 RMK A01 T02960107  RH  031%=      5-min Rain = 0
KCR1 131729Z 17003KT 30/10 A2987 RMK A01 T02950104  RH  031%=      5-min Rain = 0
KCR1 131730Z 19004KT 30/11 A2987 RMK A01 T02950109  RH  032%=      5-min Rain = 0
KCR1 131731Z 21002KT 30/11 A2987 RMK A01 T02970105  RH  031%=      5-min Rain = 0
KCR1 131732Z 23002KT 30/11 A2987 RMK A01 T02970106  RH  031%=      5-min Rain = 0
KCR1 131733Z 07001KT 30/11 A2987 RMK A01 T02970109  RH  031%=      5-min Rain = 0
KCR1 131734Z 09002KT 30/11 A2987 RMK A01 T02990112  RH  031%=      5-min Rain = 0
KCR1 131735Z 18004KT 30/11 A2987 RMK A01 T03010113  RH  031%=      5-min Rain = 0
KCR1 131736Z 18004KT 30/11 A2987 RMK A01 T03020112  RH  031%=      5-min Rain = 0
KCR1 131737Z 17004KT 30/11 A2987 RMK A01 T03020111  RH  031%=      5-min Rain = 0
KCR1 131738Z 13004KT 30/11 A2987 RMK A01 T03010111  RH  031%=      5-min Rain = 0
KCR1 131739Z 12003KT 30/11 A2987 RMK A01 T03010111  RH  031%=      5-min Rain = 0
KCR1 131740Z 13002KT 30/11 A2987 RMK A01 T03000111  RH  031%=      5-min Rain = 0
KCR1 131741Z 12002KT 30/11 A2987 RMK A01 T03010109  RH  031%=      5-min Rain = 0
KCR1 131742Z 14003KT 30/11 A2986 RMK A01 T03010111  RH  031%=      5-min Rain = 0
KCR1 131743Z 17005KT 30/11 A2986 RMK A01 T03020112  RH  031%=      5-min Rain = 0
KCR1 131744Z 16004KT 30/11 A2986 RMK A01 T03030111  RH  031%=      5-min Rain = 0
KCR1 131745Z 18005KT 30/11 A2986 RMK A01 T03030112  RH  031%=      5-min Rain = 0
KCR1 131746Z 21004KT 30/11 A2986 RMK A01 T03020113  RH  031%=      5-min Rain = 0
KCR1 131747Z 21005KT 30/11 A2986 RMK A01 T03020111  RH  031%=      5-min Rain = 0
KCR1 131748Z 20005KT 30/11 A2986 RMK A01 T03020109  RH  030%=      5-min Rain = 0
KCR1 131749Z 23002KT 30/11 A2986 RMK A01 T03000107  RH  030%=      5-min Rain = 0
KCR1 131750Z 25002KT 30/11 A2986 RMK A01 T02990108  RH  031%=      5-min Rain = 0
KCR1 131751Z 21003KT 30/11 A2986 RMK A01 T03010110  RH  031%=      5-min Rain = 0
KCR1 131752Z 20004KT 31/11 A2986 RMK A01 T03050113  RH  031%=      5-min Rain = 0
KCR1 131753Z 20004KT 31/11 A2986 RMK A01 T03070108  RH  029%=      5-min Rain = 0
KCR1 131754Z 19003KT 31/11 A2986 RMK A01 T03050107  RH  029%=      5-min Rain = 0
KCR1 131755Z 21001KT 31/11 A2986 RMK A01 T03050107  RH  029%=      5-min Rain = 0
KCR1 131756Z 06001KT 31/11 A2986 RMK A01 T03050110  RH  030%=      5-min Rain = 0
KCR1 131757Z 04002KT 31/11 A2986 RMK A01 T03060109  RH  030%=      5-min Rain = 0
KCR1 131758Z 02002KT 31/11 A2986 RMK A01 T03060107  RH  029%=      5-min Rain = 0
KCR1 131759Z 02002KT 30/11 A2986 RMK A01 T03040107  RH  030%=      5-min Rain = 0
KCR1 131800Z 20001KT 30/11 A2986 RMK A01 T03030109  RH  030%=      5-min Rain = 0
KCR1 131801Z 19002KT 31/11 A2986 RMK A01 T03060111  RH  030%=      5-min Rain = 0
KCR1 131802Z 18003KT 31/11 A2986 RMK A01 T03090112  RH  030%=      5-min Rain = 0
KCR1 131803Z 22002KT 31/11 A2986 RMK A01 T03110114  RH  030%=      5-min Rain = 0
KCR1 131804Z 24003KT 31/11 A2986 RMK A01 T03140111  RH  029%=      5-min Rain = 0
KCR1 131805Z 20002KT 31/11 A2986 RMK A01 T03140112  RH  029%=      5-min Rain = 0
KCR1 131806Z 13003KT 32/11 A2986 RMK A01 T03160114  RH  029%=      5-min Rain = 0
KCR1 131807Z 11003KT 32/11 A2985 RMK A01 T03170113  RH  029%=      5-min Rain = 0
KCR1 131808Z 08003KT 31/11 A2985 RMK A01 T03140107  RH  028%=      5-min Rain = 0
KCR1 131809Z 16004KT 31/11 A2985 RMK A01 T03110112  RH  029%=      5-min Rain = 0
KCR1 131810Z 15004KT 31/11 A2985 RMK A01 T03100110  RH  029%=      5-min Rain = 0
KCR1 131811Z 16003KT 31/11 A2985 RMK A01 T03090111  RH  029%=      5-min Rain = 0
KCR1 131812Z 17004KT 31/11 A2985 RMK A01 T03090111  RH  029%=      5-min Rain = 0
KCR1 131813Z 17004KT 31/11 A2985 RMK A01 T03090113  RH  030%=      5-min Rain = 0
KCR1 131814Z 16004KT 31/11 A2985 RMK A01 T03100111  RH  029%=      5-min Rain = 0
KCR1 131815Z 14003KT 31/11 A2985 RMK A01 T03100110  RH  029%=      5-min Rain = 0
KCR1 131816Z 12002KT 31/11 A2985 RMK A01 T03090110  RH  029%=      5-min Rain = 0
KCR1 131817Z 08002KT 31/11 A2985 RMK A01 T03100111  RH  029%=      5-min Rain = 0
KCR1 131818Z 35002KT 31/11 A2985 RMK A01 T03100111  RH  029%=      5-min Rain = 0
KCR1 131819Z 32001KT 31/11 A2985 RMK A01 T03110110  RH  029%=      5-min Rain = 0
KCR1 131820Z 15005KT 31/11 A2985 RMK A01 T03130113  RH  029%=      5-min Rain = 0
KCR1 131821Z 14004KT 31/11 A2985 RMK A01 T03140111  RH  029%=      5-min Rain = 0
KCR1 131822Z 10003KT 31/11 A2985 RMK A01 T03130112  RH  029%=      5-min Rain = 0
KCR1 131823Z 10005KT 31/12 A2985 RMK A01 T03130115  RH  030%=      5-min Rain = 0
KCR1 131824Z 12003KT 31/11 A2985 RMK A01 T03130111  RH  029%=      5-min Rain = 0
KCR1 131825Z 08001KT 31/11 A2985 RMK A01 T03130112  RH  029%=      5-min Rain = 0
KCR1 131826Z 13000KT 31/12 A2985 RMK A01 T03130115  RH  030%=      5-min Rain = 0
KCR1 131827Z 14006KT 32/11 A2985 RMK A01 T03150112  RH  029%=      5-min Rain = 0
KCR1 131828Z 17005KT 32/11 A2984 RMK A01 T03150112  RH  029%=      5-min Rain = 0
KCR1 131829Z 19005KT 32/11 A2984 RMK A01 T03150111  RH  029%=      5-min Rain = 0
KCR1 131830Z 17006KT 32/11 A2984 RMK A01 T03150112  RH  029%=      5-min Rain = 0
KCR1 131831Z 18005KT 32/11 A2984 RMK A01 T03150111  RH  029%=      5-min Rain = 0
KCR1 131832Z 20004KT 32/11 A2984 RMK A01 T03150110  RH  028%=      5-min Rain = 0
KCR1 131833Z 20002KT 32/11 A2984 RMK A01 T03150108  RH  028%=      5-min Rain = 0
KCR1 131834Z 22002KT 32/11 A2984 RMK A01 T03150110  RH  028%=      5-min Rain = 0
KCR1 131835Z 20002KT 32/11 A2984 RMK A01 T03150111  RH  028%=      5-min Rain = 0
KCR1 131836Z 21002KT 32/11 A2984 RMK A01 T03170109  RH  028%=      5-min Rain = 0
KCR1 131837Z 22003KT 32/11 A2984 RMK A01 T03170111  RH  028%=      5-min Rain = 0
KCR1 131838Z 22001KT 32/12 A2984 RMK A01 T03210116  RH  029%=      5-min Rain = 0
KCR1 131839Z 13003KT 32/11 A2984 RMK A01 T03230113  RH  028%=      5-min Rain = 0
KCR1 131840Z 14004KT 32/12 A2984 RMK A01 T03230115  RH  028%=      5-min Rain = 0
KCR1 131841Z 16004KT 32/11 A2984 RMK A01 T03230113  RH  028%=      5-min Rain = 0
KCR1 131842Z 16006KT 32/11 A2984 RMK A01 T03210110  RH  027%=      5-min Rain = 0
KCR1 131843Z 18005KT 32/11 A2984 RMK A01 T03190109  RH  028%=      5-min Rain = 0
KCR1 131844Z 19006KT 32/11 A2984 RMK A01 T03170109  RH  028%=      5-min Rain = 0
KCR1 131845Z 20004KT 32/11 A2984 RMK A01 T03190109  RH  028%=      5-min Rain = 0
KCR1 131846Z 16004KT 32/11 A2984 RMK A01 T03180109  RH  028%=      5-min Rain = 0
KCR1 131847Z 17005KT 32/11 A2984 RMK A01 T03170113  RH  029%=      5-min Rain = 0
KCR1 131848Z 21004KT 32/11 A2984 RMK A01 T03200111  RH  028%=      5-min Rain = 0
KCR1 131849Z 17004KT 32/11 A2984 RMK A01 T03210109  RH  027%=      5-min Rain = 0
KCR1 131850Z 13004KT 32/11 A2984 RMK A01 T03200110  RH  028%=      5-min Rain = 0
KCR1 131851Z 12004KT 32/11 A2984 RMK A01 T03190110  RH  028%=      5-min Rain = 0
KCR1 131852Z 15006KT 32/11 A2984 RMK A01 T03180113  RH  029%=      5-min Rain = 0
KCR1 131853Z 14005KT 32/11 A2984 RMK A01 T03180112  RH  028%=      5-min Rain = 0
KCR1 131854Z 14005KT 32/11 A2984 RMK A01 T03180113  RH  028%=      5-min Rain = 0
KCR1 131855Z 14004KT 32/12 A2984 RMK A01 T03190115  RH  029%=      5-min Rain = 0
KCR1 131856Z 16003KT 32/11 A2984 RMK A01 T03200110  RH  028%=      5-min Rain = 0
KCR1 131857Z 14002KT 32/11 A2984 RMK A01 T03190108  RH  027%=      5-min Rain = 0
KCR1 131858Z 13001KT 32/11 A2983 RMK A01 T03180107  RH  027%=      5-min Rain = 0
KCR1 131859Z 18000KT 32/11 A2983 RMK A01 T03180110  RH  028%=      5-min Rain = 0
KCR1 131900Z 28001KT 32/11 A2983 RMK A01 T03200112  RH  028%=      5-min Rain = 0
KCR1 131901Z 05002KT 32/11 A2983 RMK A01 T03240113  RH  027%=      5-min Rain = 0
KCR1 131902Z 12001KT 33/12 A2983 RMK A01 T03260115  RH  028%=      5-min Rain = 0
KCR1 131903Z 20004KT 33/11 A2983 RMK A01 T03270111  RH  027%=      5-min Rain = 0
KCR1 131904Z 21002KT 33/11 A2983 RMK A01 T03260108  RH  026%=      5-min Rain = 0
KCR1 131905Z 20003KT 33/11 A2983 RMK A01 T03250109  RH  027%=      5-min Rain = 0
KCR1 131906Z 18003KT 33/11 A2983 RMK A01 T03250111  RH  027%=      5-min Rain = 0
KCR1 131907Z 16006KT 33/11 A2983 RMK A01 T03250113  RH  027%=      5-min Rain = 0
KCR1 131908Z 15006KT 33/12 A2983 RMK A01 T03260115  RH  027%=      5-min Rain = 0
KCR1 131909Z 16004KT 33/11 A2983 RMK A01 T03260111  RH  027%=      5-min Rain = 0
KCR1 131910Z 17005KT 32/11 A2983 RMK A01 T03230111  RH  027%=      5-min Rain = 0
KCR1 131911Z 16005KT 32/11 A2983 RMK A01 T03240112  RH  027%=      5-min Rain = 0
KCR1 131912Z 18004KT 32/11 A2983 RMK A01 T03240110  RH  027%=      5-min Rain = 0
KCR1 131913Z 17004KT 32/11 A2983 RMK A01 T03240112  RH  027%=      5-min Rain = 0
KCR1 131914Z 17003KT 32/11 A2983 RMK A01 T03240107  RH  026%=      5-min Rain = 0
KCR1 131915Z 13005KT 32/11 A2983 RMK A01 T03240113  RH  027%=      5-min Rain = 0
KCR1 131916Z 12004KT 33/11 A2983 RMK A01 T03250109  RH  027%=      5-min Rain = 0
KCR1 131917Z 14004KT 32/11 A2983 RMK A01 T03230112  RH  028%=      5-min Rain = 0
KCR1 131918Z 13003KT 32/11 A2983 RMK A01 T03230111  RH  027%=      5-min Rain = 0
KCR1 131919Z 15001KT 32/11 A2982 RMK A01 T03230111  RH  027%=      5-min Rain = 0
KCR1 131920Z 27000KT 32/11 A2982 RMK A01 T03230110  RH  027%=      5-min Rain = 0
KCR1 131921Z 35000KT 32/11 A2982 RMK A01 T03230109  RH  027%=      5-min Rain = 0
KCR1 131922Z 09002KT 32/11 A2982 RMK A01 T03230109  RH  027%=      5-min Rain = 0
KCR1 131923Z 10004KT 32/11 A2982 RMK A01 T03230114  RH  028%=      5-min Rain = 0
KCR1 131924Z 10005G10KT 32/12 A2982 RMK A01 T03230116  RH  028%=      5-min Rain = 0
KCR1 131925Z 11008KT 33/12 A2982 RMK A01 T03250116  RH  028%=      5-min Rain = 0
KCR1 131926Z 12007KT 32/12 A2982 RMK A01 T03240116  RH  028%=      5-min Rain = 0
KCR1 131927Z 15005KT 32/11 A2982 RMK A01 T03230114  RH  028%=      5-min Rain = 0
KCR1 131928Z 14005KT 32/12 A2982 RMK A01 T03220115  RH  028%=      5-min Rain = 0
KCR1 131929Z 13004KT 32/11 A2982 RMK A01 T03230114  RH  028%=      5-min Rain = 0
KCR1 131930Z 12003KT 32/11 A2982 RMK A01 T03240113  RH  027%=      5-min Rain = 0
KCR1 131931Z 09003KT 33/11 A2982 RMK A01 T03260112  RH  027%=      5-min Rain = 0
KCR1 131932Z 08003KT 33/11 A2982 RMK A01 T03260114  RH  027%=      5-min Rain = 0
KCR1 131933Z 14003KT 33/11 A2982 RMK A01 T03260113  RH  027%=      5-min Rain = 0
KCR1 131934Z 15007KT 33/12 A2982 RMK A01 T03270118  RH  028%=      5-min Rain = 0
KCR1 131935Z 14003KT 33/12 A2982 RMK A01 T03280115  RH  027%=      5-min Rain = 0
KCR1 131936Z 12002KT 33/11 A2982 RMK A01 T03260112  RH  027%=      5-min Rain = 0
KCR1 131937Z 11002KT 33/11 A2982 RMK A01 T03260114  RH  027%=      5-min Rain = 0
KCR1 131938Z 07003KT 33/12 A2982 RMK A01 T03250115  RH  028%=      5-min Rain = 0
KCR1 131939Z 15006KT 33/12 A2981 RMK A01 T03260116  RH  028%=      5-min Rain = 0
KCR1 131940Z 15004KT 33/11 A2981 RMK A01 T03270114  RH  027%=      5-min Rain = 0
KCR1 131941Z 11004KT 33/12 A2981 RMK A01 T03270116  RH  028%=      5-min Rain = 0
KCR1 131942Z 09004KT 33/12 A2981 RMK A01 T03280115  RH  027%=      5-min Rain = 0
KCR1 131943Z 10003KT 33/11 A2981 RMK A01 T03280114  RH  027%=      5-min Rain = 0
KCR1 131944Z 10005KT 33/12 A2981 RMK A01 T03270115  RH  027%=      5-min Rain = 0
KCR1 131945Z 14008KT 33/12 A2981 RMK A01 T03270116  RH  028%=      5-min Rain = 0
KCR1 131946Z 15008KT 33/12 A2981 RMK A01 T03270116  RH  028%=      5-min Rain = 0
KCR1 131947Z 16007KT 33/12 A2981 RMK A01 T03270117  RH  028%=      5-min Rain = 0
KCR1 131948Z 16004KT 33/11 A2981 RMK A01 T03270113  RH  027%=      5-min Rain = 0
KCR1 131949Z 18004KT 33/12 A2981 RMK A01 T03260115  RH  027%=      5-min Rain = 0
KCR1 131950Z 19005KT 33/12 A2981 RMK A01 T03280117  RH  028%=      5-min Rain = 0
KCR1 131951Z 19006KT 33/12 A2981 RMK A01 T03310115  RH  027%=      5-min Rain = 0
KCR1 131952Z 21005KT 33/11 A2981 RMK A01 T03310112  RH  026%=      5-min Rain = 0
KCR1 131953Z 21002KT 33/11 A2981 RMK A01 T03310113  RH  026%=      5-min Rain = 0
KCR1 131954Z 16003KT 33/11 A2981 RMK A01 T03300113  RH  026%=      5-min Rain = 0
KCR1 131955Z 16003KT 33/12 A2981 RMK A01 T03310116  RH  027%=      5-min Rain = 0
KCR1 131956Z 14003KT 33/12 A2981 RMK A01 T03310115  RH  027%=      5-min Rain = 0
KCR1 131957Z 13003KT 33/11 A2981 RMK A01 T03310112  RH  026%=      5-min Rain = 0
KCR1 131958Z 15006KT 33/11 A2981 RMK A01 T03290112  RH  027%=      5-min Rain = 0
KCR1 131959Z 14009KT 33/12 A2981 RMK A01 T03300116  RH  027%=      5-min Rain = 0
KCR1 132000Z 14006KT 33/12 A2981 RMK A01 T03320119  RH  027%=      5-min Rain = 0
KCR1 132001Z 15006KT 33/12 A2981 RMK A01 T03320116  RH  027%=      5-min Rain = 0
KCR1 132002Z 15005KT 33/11 A2981 RMK A01 T03320114  RH  027%=      5-min Rain = 0
KCR1 132003Z 20003KT 33/11 A2981 RMK A01 T03300110  RH  026%=      5-min Rain = 0
KCR1 132004Z 14004KT 33/11 A298 RMK A01 T03280111  RH  027%=      5-min Rain = 0
KCR1 132005Z 11005KT 33/12 A298 RMK A01 T03300116  RH  027%=      5-min Rain = 0
KCR1 132006Z 12004KT 33/11 A298 RMK A01 T03320113  RH  026%=      5-min Rain = 0
KCR1 132007Z 13002KT 33/12 A298 RMK A01 T03320115  RH  027%=      5-min Rain = 0
KCR1 132008Z 12006KT 33/11 A298 RMK A01 T03320114  RH  026%=      5-min Rain = 0
KCR1 132009Z 09006KT 33/11 A298 RMK A01 T03320112  RH  026%=      5-min Rain = 0
KCR1 132010Z 07005KT 33/11 A298 RMK A01 T03290111  RH  026%=      5-min Rain = 0
KCR1 132011Z 08005KT 33/11 A298 RMK A01 T03280113  RH  027%=      5-min Rain = 0
KCR1 132012Z 06004KT 33/11 A298 RMK A01 T03280112  RH  027%=      5-min Rain = 0
KCR1 132013Z 12003KT 33/12 A298 RMK A01 T03280115  RH  027%=      5-min Rain = 0
KCR1 132014Z 17003KT 33/11 A298 RMK A01 T03310113  RH  027%=      5-min Rain = 0
KCR1 132015Z 17004KT 33/11 A298 RMK A01 T03320110  RH  026%=      5-min Rain = 0
KCR1 132016Z 18004KT 33/11 A298 RMK A01 T03310111  RH  026%=      5-min Rain = 0
KCR1 132017Z 16002KT 33/11 A298 RMK A01 T03320111  RH  026%=      5-min Rain = 0
KCR1 132018Z 17002KT 33/11 A298 RMK A01 T03340111  RH  026%=      5-min Rain = 0
KCR1 132019Z 13006KT 33/12 A298 RMK A01 T03340116  RH  026%=      5-min Rain = 0
KCR1 132020Z 12005KT 34/11 A298 RMK A01 T03350114  RH  026%=      5-min Rain = 0
KCR1 132021Z 10007KT 34/12 A298 RMK A01 T03350115  RH  026%=      5-min Rain = 0
KCR1 132022Z 11006KT 34/11 A298 RMK A01 T03350113  RH  026%=      5-min Rain = 0
KCR1 132023Z 14006KT 33/11 A298 RMK A01 T03330112  RH  026%=      5-min Rain = 0
KCR1 132024Z 16007KT 33/11 A298 RMK A01 T03320112  RH  026%=      5-min Rain = 0
KCR1 132025Z 14005KT 33/11 A298 RMK A01 T03320110  RH  026%=      5-min Rain = 0
KCR1 132026Z 14004KT 33/11 A298 RMK A01 T03310110  RH  026%=      5-min Rain = 0
KCR1 132027Z 16007KT 33/11 A298 RMK A01 T03320112  RH  026%=      5-min Rain = 0
KCR1 132028Z 18007KT 33/11 A298 RMK A01 T03340111  RH  026%=      5-min Rain = 0
KCR1 132029Z 19007KT 33/11 A298 RMK A01 T03340109  RH  025%=      5-min Rain = 0
KCR1 132030Z 18005KT 33/11 A298 RMK A01 T03340110  RH  025%=      5-min Rain = 0
KCR1 132031Z 16004KT 33/11 A298 RMK A01 T03340110  RH  026%=      5-min Rain = 0
KCR1 132032Z 19004KT 33/11 A298 RMK A01 T03320108  RH  025%=      5-min Rain = 0
KCR1 132033Z 20005KT 33/11 A298 RMK A01 T03320108  RH  025%=      5-min Rain = 0
KCR1 132034Z 21003KT 33/11 A298 RMK A01 T03340108  RH  025%=      5-min Rain = 0
KCR1 132035Z 24002KT 33/11 A298 RMK A01 T03340108  RH  025%=      5-min Rain = 0
KCR1 132036Z 20003KT 34/11 A298 RMK A01 T03360109  RH  025%=      5-min Rain = 0
KCR1 132037Z 19002KT 34/11 A298 RMK A01 T03390113  RH  025%=      5-min Rain = 0
KCR1 132038Z 01002KT 34/11 A298 RMK A01 T03420114  RH  025%=      5-min Rain = 0
KCR1 132039Z 06004KT 34/12 A298 RMK A01 T03440119  RH  026%=      5-min Rain = 0
KCR1 132040Z 07003KT 34/12 A298 RMK A01 T03440115  RH  025%=      5-min Rain = 0
KCR1 132041Z 05003KT 34/12 A2979 RMK A01 T03430118  RH  026%=      5-min Rain = 0
KCR1 132042Z 05004KT 34/12 A2979 RMK A01 T03430117  RH  025%=      5-min Rain = 0
KCR1 132043Z 10003KT 34/12 A2979 RMK A01 T03420117  RH  026%=      5-min Rain = 0
KCR1 132044Z 09005KT 34/12 A2979 RMK A01 T03410118  RH  026%=      5-min Rain = 0
KCR1 132045Z 14007KT 34/12 A2979 RMK A01 T03410118  RH  026%=      5-min Rain = 0
KCR1 132046Z 13007KT 34/12 A2979 RMK A01 T03410116  RH  025%=      5-min Rain = 0
KCR1 132047Z 12007KT 34/11 A2979 RMK A01 T03400113  RH  025%=      5-min Rain = 0
KCR1 132048Z 11006KT 34/11 A2979 RMK A01 T03370112  RH  025%=      5-min Rain = 0
KCR1 132049Z 10005KT 34/11 A2979 RMK A01 T03350111  RH  026%=      5-min Rain = 0
KCR1 132050Z 08006KT 33/11 A2979 RMK A01 T03340112  RH  026%=      5-min Rain = 0
KCR1 132051Z 08006KT 33/11 A2979 RMK A01 T03340112  RH  026%=      5-min Rain = 0
KCR1 132052Z 08008KT 34/12 A2979 RMK A01 T03350115  RH  026%=      5-min Rain = 0
KCR1 132053Z 08007KT 34/12 A2979 RMK A01 T03380116  RH  026%=      5-min Rain = 0
KCR1 132054Z 07008KT 34/11 A2979 RMK A01 T03380113  RH  026%=      5-min Rain = 0
KCR1 132055Z 05007KT 34/12 A2979 RMK A01 T03380116  RH  026%=      5-min Rain = 0
KCR1 132056Z 05007KT 34/12 A2979 RMK A01 T03390117  RH  026%=      5-min Rain = 0
KCR1 132057Z 08006KT 34/11 A2979 RMK A01 T03400114  RH  025%=      5-min Rain = 0
KCR1 132058Z 08006KT 34/11 A2979 RMK A01 T03390114  RH  025%=      5-min Rain = 0
KCR1 132059Z 07004KT 34/11 A2979 RMK A01 T03370111  RH  025%=      5-min Rain = 0
KCR1 132100Z 08003KT 34/12 A2979 RMK A01 T03360115  RH  026%=      5-min Rain = 0
KCR1 132101Z 11005KT 34/11 A2979 RMK A01 T03370114  RH  026%=      5-min Rain = 0
KCR1 132102Z 11004KT 34/11 A2979 RMK A01 T03380112  RH  025%=      5-min Rain = 0
KCR1 132103Z 14005KT 34/12 A2979 RMK A01 T03370115  RH  026%=      5-min Rain = 0
KCR1 132104Z 16005KT 34/12 A2979 RMK A01 T03380115  RH  026%=      5-min Rain = 0
KCR1 132105Z 12006KT 34/12 A2979 RMK A01 T03390116  RH  026%=      5-min Rain = 0
KCR1 132106Z 16008KT 34/12 A2979 RMK A01 T03410116  RH  026%=      5-min Rain = 0
KCR1 132107Z 15005KT 34/12 A2979 RMK A01 T03410115  RH  025%=      5-min Rain = 0
KCR1 132108Z 11007KT 34/12 A2979 RMK A01 T03410116  RH  025%=      5-min Rain = 0
KCR1 132109Z 12007KT 34/12 A2979 RMK A01 T03400115  RH  025%=      5-min Rain = 0
KCR1 132110Z 14008KT 34/12 A2979 RMK A01 T03400116  RH  026%=      5-min Rain = 0
KCR1 132111Z 15007KT 34/12 A2979 RMK A01 T03400115  RH  026%=      5-min Rain = 0
KCR1 132112Z 18004KT 34/11 A2979 RMK A01 T03380109  RH  025%=      5-min Rain = 0
KCR1 132113Z 20002KT 33/11 A2979 RMK A01 T03340109  RH  025%=      5-min Rain = 0
KCR1 132114Z 11003KT 33/11 A2979 RMK A01 T03340111  RH  026%=      5-min Rain = 0
KCR1 132115Z 12008KT 34/12 A2979 RMK A01 T03370115  RH  026%=      5-min Rain = 0
KCR1 132116Z 13007KT 34/11 A2979 RMK A01 T03380112  RH  025%=      5-min Rain = 0
KCR1 132117Z 12006KT 34/11 A2979 RMK A01 T03370113  RH  026%=      5-min Rain = 0
KCR1 132118Z 17005KT 34/12 A2979 RMK A01 T03370116  RH  026%=      5-min Rain = 0
KCR1 132119Z 16004KT 34/11 A2979 RMK A01 T03380113  RH  025%=      5-min Rain = 0
KCR1 132120Z 15005KT 34/11 A2979 RMK A01 T03390114  RH  025%=      5-min Rain = 0
KCR1 132121Z 15004KT 34/11 A2979 RMK A01 T03380112  RH  025%=      5-min Rain = 0
KCR1 132122Z 14003KT 34/12 A2978 RMK A01 T03370115  RH  026%=      5-min Rain = 0
KCR1 132123Z 15002KT 34/11 A2978 RMK A01 T03380111  RH  025%=      5-min Rain = 0
KCR1 132124Z 20000KT 34/11 A2978 RMK A01 T03380108  RH  025%=      5-min Rain = 0
KCR1 132125Z 09003KT 34/11 A2978 RMK A01 T03390108  RH  024%=      5-min Rain = 0
KCR1 132126Z 07002KT 34/11 A2978 RMK A01 T03390109  RH  025%=      5-min Rain = 0
KCR1 132127Z 11002KT 34/11 A2978 RMK A01 T03370107  RH  025%=      5-min Rain = 0
KCR1 132128Z 09001KT 34/11 A2978 RMK A01 T03350107  RH  025%=      5-min Rain = 0
KCR1 132129Z 03001KT 34/11 A2978 RMK A01 T03350108  RH  025%=      5-min Rain = 0
KCR1 132130Z 09003KT 34/11 A2978 RMK A01 T03360111  RH  025%=      5-min Rain = 0
KCR1 132131Z 11004KT 34/11 A2978 RMK A01 T03390113  RH  025%=      5-min Rain = 0
KCR1 132132Z 11003KT 34/11 A2978 RMK A01 T03400110  RH  025%=      5-min Rain = 0
KCR1 132133Z 11008KT 34/11 A2978 RMK A01 T03400113  RH  025%=      5-min Rain = 0
KCR1 132134Z 11006KT 34/11 A2978 RMK A01 T03410112  RH  025%=      5-min Rain = 0
KCR1 132135Z 09005KT 34/11 A2978 RMK A01 T03420111  RH  024%=      5-min Rain = 0
KCR1 132136Z 08005KT 34/11 A2978 RMK A01 T03400109  RH  024%=      5-min Rain = 0
KCR1 132137Z 09005KT 34/11 A2978 RMK A01 T03390111  RH  025%=      5-min Rain = 0
KCR1 132138Z 11006KT 34/11 A2978 RMK A01 T03390113  RH  025%=      5-min Rain = 0
KCR1 132139Z 13006KT 34/11 A2978 RMK A01 T03420114  RH  025%=      5-min Rain = 0
KCR1 132140Z 11006KT 34/11 A2978 RMK A01 T03430114  RH  025%=      5-min Rain = 0
KCR1 132141Z 10004KT 34/11 A2978 RMK A01 T03430110  RH  024%=      5-min Rain = 0
KCR1 132142Z 11004KT 34/11 A2978 RMK A01 T03410112  RH  025%=      5-min Rain = 0
KCR1 132143Z 09004KT 34/11 A2978 RMK A01 T03410111  RH  025%=      5-min Rain = 0
KCR1 132144Z 08007KT 34/11 A2978 RMK A01 T03410112  RH  025%=      5-min Rain = 0
KCR1 132145Z 08007KT 34/11 A2978 RMK A01 T03410113  RH  025%=      5-min Rain = 0
KCR1 132146Z 07006KT 34/11 A2978 RMK A01 T03410110  RH  024%=      5-min Rain = 0
KCR1 132147Z 08004KT 34/11 A2978 RMK A01 T03390111  RH  025%=      5-min Rain = 0
KCR1 132148Z 10006KT 34/11 A2978 RMK A01 T03390112  RH  025%=      5-min Rain = 0
KCR1 132149Z 09005KT 34/11 A2978 RMK A01 T03380109  RH  025%=      5-min Rain = 0
KCR1 132150Z 09004KT 34/11 A2978 RMK A01 T03380110  RH  025%=      5-min Rain = 0
KCR1 132151Z 09003KT 34/11 A2978 RMK A01 T03370111  RH  025%=      5-min Rain = 0
KCR1 132152Z 09001KT 34/11 A2978 RMK A01 T03370109  RH  025%=      5-min Rain = 0
KCR1 132153Z 09001KT 34/11 A2978 RMK A01 T03380106  RH  024%=      5-min Rain = 0
KCR1 132154Z 08004KT 34/11 A2978 RMK A01 T03390111  RH  025%=      5-min Rain = 0
KCR1 132155Z 08004KT 34/11 A2978 RMK A01 T03400112  RH  025%=      5-min Rain = 0
KCR1 132156Z 08004KT 34/11 A2978 RMK A01 T03400109  RH  025%=      5-min Rain = 0
KCR1 132157Z 09005KT 34/11 A2978 RMK A01 T03390111  RH  025%=      5-min Rain = 0
KCR1 132158Z 09006KT 34/11 A2978 RMK A01 T03390114  RH  025%=      5-min Rain = 0
KCR1 132159Z 08007KT 34/11 A2978 RMK A01 T03400113  RH  025%=      5-min Rain = 0
KCR1 132200Z 08006KT 34/11 A2977 RMK A01 T03400110  RH  025%=      5-min Rain = 0
KCR1 132201Z 08006KT 34/11 A2977 RMK A01 T03390110  RH  025%=      5-min Rain = 0
KCR1 132202Z 08005KT 34/11 A2978 RMK A01 T03370109  RH  025%=      5-min Rain = 0
KCR1 132203Z 09005KT 34/11 A2977 RMK A01 T03360112  RH  025%=      5-min Rain = 0
KCR1 132204Z 12006KT 34/12 A2978 RMK A01 T03380115  RH  026%=      5-min Rain = 0
KCR1 132205Z 13006KT 34/12 A2977 RMK A01 T03400115  RH  025%=      5-min Rain = 0
KCR1 132206Z 13007KT 34/11 A2978 RMK A01 T03420112  RH  025%=      5-min Rain = 0
KCR1 132207Z 12005KT 34/12 A2978 RMK A01 T03410115  RH  025%=      5-min Rain = 0
KCR1 132208Z 10006KT 34/11 A2978 RMK A01 T03420112  RH  025%=      5-min Rain = 0
KCR1 132209Z 09004KT 34/11 A2978 RMK A01 T03400108  RH  024%=      5-min Rain = 0
KCR1 132210Z 13003KT 34/11 A2977 RMK A01 T03380111  RH  025%=      5-min Rain = 0
KCR1 132211Z 10007KT 34/11 A2977 RMK A01 T03390114  RH  025%=      5-min Rain = 0
KCR1 132212Z 12006KT 34/11 A2977 RMK A01 T03410109  RH  024%=      5-min Rain = 0
KCR1 132213Z 11007KT 34/11 A2977 RMK A01 T03390111  RH  025%=      5-min Rain = 0
KCR1 132214Z 11007KT 34/11 A2977 RMK A01 T03390112  RH  025%=      5-min Rain = 0
KCR1 132215Z 10007KT 34/11 A2977 RMK A01 T03390111  RH  025%=      5-min Rain = 0
KCR1 132216Z 11005KT 34/11 A2977 RMK A01 T03390109  RH  025%=      5-min Rain = 0
KCR1 132217Z 11005KT 34/11 A2977 RMK A01 T03380111  RH  025%=      5-min Rain = 0
KCR1 132218Z 12005KT 34/12 A2977 RMK A01 T03380116  RH  026%=      5-min Rain = 0
KCR1 132219Z 12004KT 34/11 A2977 RMK A01 T03410114  RH  025%=      5-min Rain = 0
KCR1 132220Z 12005KT 34/11 A2977 RMK A01 T03410110  RH  025%=      5-min Rain = 0
KCR1 132221Z 12006KT 34/11 A2977 RMK A01 T03400113  RH  025%=      5-min Rain = 0
KCR1 132222Z 14007KT 34/11 A2977 RMK A01 T03410114  RH  025%=      5-min Rain = 0
KCR1 132223Z 13006KT 34/11 A2977 RMK A01 T03400110  RH  025%=      5-min Rain = 0
KCR1 132224Z 14005KT 34/11 A2977 RMK A01 T03390114  RH  025%=      5-min Rain = 0
KCR1 132225Z 13006KT 34/11 A2977 RMK A01 T03400114  RH  025%=      5-min Rain = 0
KCR1 132226Z 14005KT 34/11 A2977 RMK A01 T03400110  RH  025%=      5-min Rain = 0
KCR1 132227Z 13007KT 34/11 A2977 RMK A01 T03390112  RH  025%=      5-min Rain = 0
KCR1 132228Z 13006KT 34/11 A2977 RMK A01 T03380109  RH  025%=      5-min Rain = 0
KCR1 132229Z 12004KT 34/11 A2977 RMK A01 T03370110  RH  025%=      5-min Rain = 0
KCR1 132230Z 12005KT 34/11 A2977 RMK A01 T03370112  RH  025%=      5-min Rain = 0
KCR1 132231Z 11003KT 34/11 A2977 RMK A01 T03380113  RH  026%=      5-min Rain = 0
KCR1 132232Z 10005KT 34/11 A2977 RMK A01 T03390112  RH  025%=      5-min Rain = 0
KCR1 132233Z 12006KT 34/11 A2977 RMK A01 T03390111  RH  025%=      5-min Rain = 0
KCR1 132234Z 11007KT 34/11 A2977 RMK A01 T03400114  RH  025%=      5-min Rain = 0
KCR1 132235Z 11008KT 34/11 A2977 RMK A01 T03410112  RH  025%=      5-min Rain = 0
KCR1 132236Z 11007KT 34/11 A2977 RMK A01 T03410112  RH  025%=      5-min Rain = 0
KCR1 132237Z 09006KT 34/11 A2977 RMK A01 T03410114  RH  025%=      5-min Rain = 0
KCR1 132238Z 11007KT 34/11 A2977 RMK A01 T03410112  RH  025%=      5-min Rain = 0
KCR1 132239Z 13009KT 34/11 A2977 RMK A01 T03410112  RH  025%=      5-min Rain = 0
KCR1 132240Z 13008KT 34/11 A2977 RMK A01 T03400112  RH  025%=      5-min Rain = 0
KCR1 132241Z 14005KT 34/11 A2977 RMK A01 T03380109  RH  025%=      5-min Rain = 0
KCR1 132242Z 14007KT 34/11 A2977 RMK A01 T03370112  RH  025%=      5-min Rain = 0
KCR1 132243Z 16008KT 34/11 A2977 RMK A01 T03370111  RH  025%=      5-min Rain = 0
KCR1 132244Z 18005KT 34/11 A2977 RMK A01 T03370109  RH  025%=      5-min Rain = 0
KCR1 132245Z 19005KT 34/11 A2977 RMK A01 T03360110  RH  025%=      5-min Rain = 0
KCR1 132246Z 18006KT 34/11 A2977 RMK A01 T03380111  RH  025%=      5-min Rain = 0
KCR1 132247Z 16006KT 34/11 A2977 RMK A01 T03380110  RH  025%=      5-min Rain = 0
KCR1 132248Z 16006KT 34/11 A2977 RMK A01 T03380111  RH  025%=      5-min Rain = 0
KCR1 132249Z 15007KT 34/11 A2977 RMK A01 T03380111  RH  025%=      5-min Rain = 0
KCR1 132250Z 14007KT 34/11 A2977 RMK A01 T03380111  RH  025%=      5-min Rain = 0
KCR1 132251Z 13010KT 34/11 A2977 RMK A01 T03370113  RH  026%=      5-min Rain = 0
KCR1 132252Z 13008KT 34/11 A2977 RMK A01 T03370111  RH  025%=      5-min Rain = 0
KCR1 132253Z 12006KT 34/11 A2977 RMK A01 T03370110  RH  025%=      5-min Rain = 0
KCR1 132254Z 13008KT 34/11 A2977 RMK A01 T03360110  RH  025%=      5-min Rain = 0
KCR1 132255Z 14007KT 34/11 A2977 RMK A01 T03360113  RH  026%=      5-min Rain = 0
KCR1 132256Z 14006KT 34/11 A2977 RMK A01 T03360112  RH  026%=      5-min Rain = 0
KCR1 132257Z 15006KT 34/11 A2977 RMK A01 T03360111  RH  025%=      5-min Rain = 0
KCR1 132258Z 13006KT 34/11 A2977 RMK A01 T03360112  RH  026%=      5-min Rain = 0
KCR1 132259Z 12009KT 34/11 A2977 RMK A01 T03370113  RH  026%=      5-min Rain = 0
KCR1 132300Z 13009KT 34/11 A2977 RMK A01 T03370111  RH  025%=      5-min Rain = 0
KCR1 132301Z 12009KT 34/11 A2977 RMK A01 T03360111  RH  025%=      5-min Rain = 0
KCR1 132302Z 11007KT 34/11 A2977 RMK A01 T03350109  RH  025%=      5-min Rain = 0
KCR1 132303Z 10006KT 33/11 A2977 RMK A01 T03340110  RH  025%=      5-min Rain = 0
KCR1 132304Z 12006KT 34/11 A2977 RMK A01 T03350109  RH  025%=      5-min Rain = 0
KCR1 132305Z 11004KT 33/11 A2977 RMK A01 T03340110  RH  026%=      5-min Rain = 0
KCR1 132306Z 14009KT 34/11 A2977 RMK A01 T03350113  RH  026%=      5-min Rain = 0
KCR1 132307Z 13008KT 34/11 A2977 RMK A01 T03350112  RH  026%=      5-min Rain = 0
KCR1 132308Z 12006KT 34/11 A2977 RMK A01 T03350113  RH  026%=      5-min Rain = 0
KCR1 132309Z 13005KT 34/11 A2977 RMK A01 T03360114  RH  026%=      5-min Rain = 0
KCR1 132310Z 13005KT 34/11 A2977 RMK A01 T03360112  RH  026%=      5-min Rain = 0
KCR1 132311Z 13006KT 34/12 A2977 RMK A01 T03360116  RH  026%=      5-min Rain = 0
KCR1 132312Z 13007KT 34/12 A2977 RMK A01 T03360118  RH  027%=      5-min Rain = 0
KCR1 132313Z 12008KT 34/11 A2977 RMK A01 T03360112  RH  026%=      5-min Rain = 0
KCR1 132314Z 13007KT 34/11 A2977 RMK A01 T03350112  RH  026%=      5-min Rain = 0
KCR1 132315Z 14009KT 33/11 A2977 RMK A01 T03340112  RH  026%=      5-min Rain = 0
KCR1 132316Z 14010KT 33/11 A2977 RMK A01 T03330113  RH  026%=      5-min Rain = 0
KCR1 132317Z 14009KT 33/11 A2977 RMK A01 T03320113  RH  026%=      5-min Rain = 0
KCR1 132318Z 14009KT 33/11 A2977 RMK A01 T03310113  RH  026%=      5-min Rain = 0
KCR1 132319Z 14008KT 33/11 A2977 RMK A01 T03310113  RH  026%=      5-min Rain = 0
KCR1 132320Z 14009KT 33/11 A2977 RMK A01 T03300113  RH  027%=      5-min Rain = 0
KCR1 132321Z 13007KT 33/11 A2977 RMK A01 T03300114  RH  027%=      5-min Rain = 0
KCR1 132322Z 13009KT 33/12 A2977 RMK A01 T03300115  RH  027%=      5-min Rain = 0
KCR1 132323Z 13009KT 33/11 A2977 RMK A01 T03300111  RH  026%=      5-min Rain = 0
KCR1 132324Z 13008KT 33/11 A2977 RMK A01 T03300112  RH  026%=      5-min Rain = 0
KCR1 132325Z 12008KT 33/11 A2977 RMK A01 T03290114  RH  027%=      5-min Rain = 0
KCR1 132326Z 13009KT 33/11 A2977 RMK A01 T03300112  RH  026%=      5-min Rain = 0
KCR1 132327Z 13008KT 33/11 A2977 RMK A01 T03290112  RH  026%=      5-min Rain = 0
KCR1 132328Z 12008KT 33/11 A2977 RMK A01 T03290112  RH  026%=      5-min Rain = 0
KCR1 132329Z 13007KT 33/11 A2977 RMK A01 T03290111  RH  026%=      5-min Rain = 0
KCR1 132330Z 14008KT 33/11 A2977 RMK A01 T03290113  RH  027%=      5-min Rain = 0
KCR1 132331Z 13007KT 33/11 A2977 RMK A01 T03280113  RH  027%=      5-min Rain = 0
KCR1 132332Z 11009KT 33/11 A2977 RMK A01 T03290113  RH  027%=      5-min Rain = 0
KCR1 132333Z 11008KT 33/11 A2977 RMK A01 T03280110  RH  026%=      5-min Rain = 0
KCR1 132334Z 13007KT 33/11 A2977 RMK A01 T03280111  RH  026%=      5-min Rain = 0
KCR1 132335Z 13009KT 33/11 A2977 RMK A01 T03280111  RH  027%=      5-min Rain = 0
KCR1 132336Z 13008KT 33/11 A2977 RMK A01 T03280109  RH  026%=      5-min Rain = 0
KCR1 132337Z 13009KT 33/11 A2977 RMK A01 T03270109  RH  026%=      5-min Rain = 0
KCR1 132338Z 13009KT 33/11 A2977 RMK A01 T03270109  RH  026%=      5-min Rain = 0
KCR1 132339Z 12008KT 33/11 A2977 RMK A01 T03260110  RH  027%=      5-min Rain = 0
KCR1 132340Z 12010KT 33/11 A2977 RMK A01 T03260109  RH  026%=      5-min Rain = 0
KCR1 132341Z 14007KT 33/11 A2977 RMK A01 T03260112  RH  027%=      5-min Rain = 0
KCR1 132342Z 14010KT 33/11 A2977 RMK A01 T03260112  RH  027%=      5-min Rain = 0
KCR1 132343Z 13009KT 33/11 A2977 RMK A01 T03250110  RH  027%=      5-min Rain = 0
KCR1 132344Z 12009KT 33/11 A2977 RMK A01 T03250109  RH  027%=      5-min Rain = 0
KCR1 132345Z 12009KT 32/11 A2977 RMK A01 T03240109  RH  027%=      5-min Rain = 0
KCR1 132346Z 12008KT 32/11 A2977 RMK A01 T03240109  RH  027%=      5-min Rain = 0
KCR1 132347Z 12007KT 32/11 A2977 RMK A01 T03240111  RH  027%=      5-min Rain = 0
KCR1 132348Z 12008KT 32/11 A2977 RMK A01 T03240112  RH  027%=      5-min Rain = 0
KCR1 132349Z 13007KT 32/11 A2977 RMK A01 T03230110  RH  027%=      5-min Rain = 0
KCR1 132350Z 13010KT 32/11 A2977 RMK A01 T03230110  RH  027%=      5-min Rain = 0
KCR1 132351Z 13009KT 32/11 A2977 RMK A01 T03230110  RH  027%=      5-min Rain = 0
KCR1 132352Z 13009KT 32/11 A2977 RMK A01 T03220109  RH  027%=      5-min Rain = 0
KCR1 132353Z 12009KT 32/11 A2977 RMK A01 T03220108  RH  027%=      5-min Rain = 0
KCR1 132354Z 12008KT 32/11 A2977 RMK A01 T03220109  RH  027%=      5-min Rain = 0
KCR1 132355Z 12008KT 32/11 A2977 RMK A01 T03220109  RH  027%=      5-min Rain = 0
KCR1 132356Z 12008KT 32/11 A2977 RMK A01 T03210108  RH  027%=      5-min Rain = 0
KCR1 132357Z 12008KT 32/11 A2977 RMK A01 T03210107  RH  027%=      5-min Rain = 0
KCR1 132358Z 13009KT 32/11 A2977 RMK A01 T03210107  RH  027%=      5-min Rain = 0
KCR1 132359Z 12009KT 32/11 A2977 RMK A01 T03210106  RH  027%=      5-min Rain = 0
KCR1 140000Z 12008KT 32/11 A2977 RMK A01 T03200107  RH  027%=      5-min Rain = 0
KCR1 140001Z 12009KT 32/11 A2977 RMK A01 T03200106  RH  027%=      5-min Rain = 0
KCR1 140002Z 12009KT 32/11 A2977 RMK A01 T03190105  RH  027%=      5-min Rain = 0
KCR1 140003Z 12010KT 32/11 A2977 RMK A01 T03190105  RH  027%=      5-min Rain = 0
KCR1 140004Z 13011KT 32/10 A2977 RMK A01 T03190104  RH  027%=      5-min Rain = 0
KCR1 140005Z 12009KT 32/10 A2977 RMK A01 T03190104  RH  027%=      5-min Rain = 0
KCR1 140006Z 12009KT 32/11 A2977 RMK A01 T03190105  RH  027%=      5-min Rain = 0
KCR1 140007Z 12008KT 32/11 A2977 RMK A01 T03180105  RH  027%=      5-min Rain = 0
KCR1 140008Z 12007KT 32/11 A2977 RMK A01 T03180106  RH  027%=      5-min Rain = 0
KCR1 140009Z 12010KT 32/11 A2977 RMK A01 T03170105  RH  027%=      5-min Rain = 0
KCR1 140010Z 12009KT 32/11 A2977 RMK A01 T03170105  RH  027%=      5-min Rain = 0
KCR1 140011Z 12008KT 32/10 A2977 RMK A01 T03160104  RH  027%=      5-min Rain = 0
KCR1 140012Z 11009KT 32/10 A2977 RMK A01 T03160104  RH  027%=      5-min Rain = 0
KCR1 140013Z 11009KT 32/10 A2977 RMK A01 T03150104  RH  027%=      5-min Rain = 0
KCR1 140014Z 11009KT 32/10 A2977 RMK A01 T03150104  RH  027%=      5-min Rain = 0
KCR1 140015Z 11010KT 32/10 A2977 RMK A01 T03150103  RH  027%=      5-min Rain = 0
KCR1 140016Z 11008KT 31/10 A2977 RMK A01 T03140103  RH  027%=      5-min Rain = 0
KCR1 140017Z 11007KT 31/10 A2977 RMK A01 T03140104  RH  027%=      5-min Rain = 0
KCR1 140018Z 11009KT 31/10 A2977 RMK A01 T03130103  RH  027%=      5-min Rain = 0
KCR1 140019Z 11008KT 31/10 A2977 RMK A01 T03120103  RH  027%=      5-min Rain = 0
KCR1 140020Z 11009KT 31/10 A2977 RMK A01 T03120103  RH  027%=      5-min Rain = 0
KCR1 140021Z 12008KT 31/10 A2977 RMK A01 T03120102  RH  027%=      5-min Rain = 0
KCR1 140022Z 11008KT 31/10 A2977 RMK A01 T03120103  RH  027%=      5-min Rain = 0
KCR1 140023Z 11007KT 31/10 A2977 RMK A01 T03120103  RH  028%=      5-min Rain = 0
KCR1 140024Z 11007KT 31/10 A2977 RMK A01 T03110103  RH  028%=      5-min Rain = 0
KCR1 140025Z 11007KT 31/10 A2977 RMK A01 T03100102  RH  028%=      5-min Rain = 0
KCR1 140026Z 11007KT 31/10 A2977 RMK A01 T03100103  RH  028%=      5-min Rain = 0
KCR1 140027Z 11007KT 31/10 A2977 RMK A01 T03090102  RH  028%=      5-min Rain = 0
KCR1 140028Z 11007KT 31/10 A2977 RMK A01 T03080102  RH  028%=      5-min Rain = 0
KCR1 140029Z 11007KT 31/10 A2977 RMK A01 T03070102  RH  028%=      5-min Rain = 0
KCR1 140030Z 11007KT 31/10 A2977 RMK A01 T03060103  RH  028%=      5-min Rain = 0
KCR1 140031Z 11007KT 31/10 A2977 RMK A01 T03050103  RH  029%=      5-min Rain = 0
KCR1 140032Z 11006KT 30/10 A2977 RMK A01 T03040103  RH  029%=      5-min Rain = 0
KCR1 140033Z 12006KT 30/10 A2977 RMK A01 T03030103  RH  029%=      5-min Rain = 0
KCR1 140034Z 11006KT 30/10 A2977 RMK A01 T03020103  RH  029%=      5-min Rain = 0
KCR1 140035Z 12006KT 30/10 A2977 RMK A01 T03010103  RH  029%=      5-min Rain = 0
KCR1 140036Z 11007KT 30/10 A2977 RMK A01 T03010103  RH  029%=      5-min Rain = 0
KCR1 140037Z 11006KT 30/10 A2977 RMK A01 T03000103  RH  029%=      5-min Rain = 0
KCR1 140038Z 11006KT 30/10 A2977 RMK A01 T03000103  RH  030%=      5-min Rain = 0
KCR1 140039Z 11006KT 30/10 A2977 RMK A01 T02990103  RH  030%=      5-min Rain = 0
KCR1 140040Z 11006KT 30/10 A2977 RMK A01 T02980103  RH  030%=      5-min Rain = 0
KCR1 140041Z 11006KT 30/10 A2977 RMK A01 T02970103  RH  030%=      5-min Rain = 0
KCR1 140042Z 11006KT 30/10 A2977 RMK A01 T02960103  RH  030%=      5-min Rain = 0
KCR1 140043Z 11006KT 30/10 A2977 RMK A01 T02950103  RH  030%=      5-min Rain = 0
KCR1 140044Z 11006KT 29/10 A2977 RMK A01 T02940103  RH  030%=      5-min Rain = 0
KCR1 140045Z 11006KT 29/10 A2977 RMK A01 T02940104  RH  031%=      5-min Rain = 0
KCR1 140046Z 11006KT 29/10 A2977 RMK A01 T02940104  RH  031%=      5-min Rain = 0
KCR1 140047Z 11005KT 29/10 A2977 RMK A01 T02930103  RH  031%=      5-min Rain = 0
KCR1 140048Z 11006KT 29/10 A2977 RMK A01 T02930104  RH  031%=      5-min Rain = 0
KCR1 140049Z 11006KT 29/10 A2977 RMK A01 T02920104  RH  031%=      5-min Rain = 0
KCR1 140050Z 11006KT 29/10 A2977 RMK A01 T02920104  RH  031%=      5-min Rain = 0
KCR1 140051Z 11006KT 29/10 A2977 RMK A01 T02910104  RH  031%=      5-min Rain = 0
KCR1 140052Z 11006KT 29/10 A2977 RMK A01 T02910104  RH  031%=      5-min Rain = 0
KCR1 140053Z 11006KT 29/10 A2977 RMK A01 T02900104  RH  031%=      5-min Rain = 0
KCR1 140054Z 11006KT 29/10 A2977 RMK A01 T02900104  RH  031%=      5-min Rain = 0
KCR1 140055Z 11006KT 29/10 A2977 RMK A01 T02890104  RH  032%=      5-min Rain = 0
KCR1 140056Z 10006KT 29/10 A2977 RMK A01 T02880104  RH  032%=      5-min Rain = 0
KCR1 140057Z 11006KT 29/10 A2977 RMK A01 T02880104  RH  032%=      5-min Rain = 0
KCR1 140058Z 11006KT 29/10 A2977 RMK A01 T02870104  RH  032%=      5-min Rain = 0
KCR1 140059Z 11006KT 29/10 A2977 RMK A01 T02870103  RH  032%=      5-min Rain = 0
KCR1 140100Z 11005KT 29/10 A2977 RMK A01 T02870103  RH  032%=      5-min Rain = 0
KCR1 140101Z 11006KT 29/10 A2977 RMK A01 T02870104  RH  032%=      5-min Rain = 0
KCR1 140102Z 11006KT 29/10 A2977 RMK A01 T02870103  RH  032%=      5-min Rain = 0
KCR1 140103Z 10005KT 29/10 A2977 RMK A01 T02860104  RH  032%=      5-min Rain = 0
KCR1 140104Z 11005KT 29/10 A2977 RMK A01 T02850104  RH  032%=      5-min Rain = 0
KCR1 140105Z 11006KT 28/10 A2977 RMK A01 T02840104  RH  032%=      5-min Rain = 0
KCR1 140106Z 11006KT 28/10 A2977 RMK A01 T02840104  RH  033%=      5-min Rain = 0
KCR1 140107Z 10005KT 28/10 A2977 RMK A01 T02830104  RH  033%=      5-min Rain = 0
KCR1 140108Z 10005KT 28/10 A2977 RMK A01 T02820103  RH  033%=      5-min Rain = 0
KCR1 140109Z 10006KT 28/10 A2977 RMK A01 T02820103  RH  033%=      5-min Rain = 0
KCR1 140110Z 10005KT 28/10 A2977 RMK A01 T02810103  RH  033%=      5-min Rain = 0
KCR1 140111Z 11006KT 28/10 A2977 RMK A01 T02810103  RH  033%=      5-min Rain = 0
KCR1 140112Z 10006KT 28/10 A2977 RMK A01 T02810102  RH  033%=      5-min Rain = 0
KCR1 140113Z 10006KT 28/10 A2977 RMK A01 T02810102  RH  033%=      5-min Rain = 0
KCR1 140114Z 11005KT 28/10 A2977 RMK A01 T02800103  RH  033%=      5-min Rain = 0
KCR1 140115Z 11005KT 28/10 A2977 RMK A01 T02800103  RH  033%=      5-min Rain = 0
KCR1 140116Z 11006KT 28/10 A2977 RMK A01 T02790103  RH  033%=      5-min Rain = 0
KCR1 140117Z 11006KT 28/10 A2977 RMK A01 T02790103  RH  033%=      5-min Rain = 0
KCR1 140118Z 10006KT 28/10 A2977 RMK A01 T02790103  RH  033%=      5-min Rain = 0
KCR1 140119Z 10006KT 28/10 A2977 RMK A01 T02780104  RH  034%=      5-min Rain = 0
KCR1 140120Z 10006KT 28/10 A2977 RMK A01 T02780104  RH  034%=      5-min Rain = 0
KCR1 140121Z 10006KT 28/10 A2977 RMK A01 T02770104  RH  034%=      5-min Rain = 0
KCR1 140122Z 10006KT 28/10 A2977 RMK A01 T02770104  RH  034%=      5-min Rain = 0
KCR1 140123Z 11006KT 28/11 A2977 RMK A01 T02770105  RH  034%=      5-min Rain = 0
KCR1 140124Z 10006KT 28/10 A2978 RMK A01 T02760104  RH  034%=      5-min Rain = 0
KCR1 140125Z 11006KT 28/11 A2978 RMK A01 T02760105  RH  034%=      5-min Rain = 0
KCR1 140126Z 11006KT 28/11 A2978 RMK A01 T02750105  RH  034%=      5-min Rain = 0
KCR1 140127Z 11006KT 28/11 A2978 RMK A01 T02750105  RH  034%=      5-min Rain = 0
KCR1 140128Z 10006KT 28/11 A2978 RMK A01 T02750105  RH  035%=      5-min Rain = 0
KCR1 140129Z 10006KT 28/11 A2978 RMK A01 T02750105  RH  035%=      5-min Rain = 0
KCR1 140130Z 11006KT 28/11 A2978 RMK A01 T02750105  RH  035%=      5-min Rain = 0
KCR1 140131Z 10006KT 28/11 A2978 RMK A01 T02750106  RH  035%=      5-min Rain = 0
KCR1 140132Z 10006KT 28/11 A2978 RMK A01 T02750106  RH  035%=      5-min Rain = 0
KCR1 140133Z 10006KT 27/11 A2978 RMK A01 T02740106  RH  035%=      5-min Rain = 0
KCR1 140134Z 11006KT 27/11 A2978 RMK A01 T02740106  RH  035%=      5-min Rain = 0
KCR1 140135Z 11006KT 27/11 A2978 RMK A01 T02730106  RH  035%=      5-min Rain = 0
KCR1 140136Z 11006KT 27/11 A2978 RMK A01 T02730107  RH  035%=      5-min Rain = 0
KCR1 140137Z 11006KT 27/11 A2978 RMK A01 T02720107  RH  035%=      5-min Rain = 0
KCR1 140138Z 10006KT 27/11 A2978 RMK A01 T02720107  RH  036%=      5-min Rain = 0
KCR1 140139Z 10006KT 27/11 A2978 RMK A01 T02720108  RH  036%=      5-min Rain = 0
KCR1 140140Z 10006KT 27/11 A2978 RMK A01 T02710108  RH  036%=      5-min Rain = 0
KCR1 140141Z 10006KT 27/11 A2978 RMK A01 T02720109  RH  036%=      5-min Rain = 0
KCR1 140142Z 10006KT 27/11 A2978 RMK A01 T02710109  RH  036%=      5-min Rain = 0
KCR1 140143Z 10006KT 27/11 A2978 RMK A01 T02710109  RH  036%=      5-min Rain = 0
KCR1 140144Z 10006KT 27/11 A2978 RMK A01 T02710109  RH  036%=      5-min Rain = 0
KCR1 140145Z 10006KT 27/11 A2978 RMK A01 T02710110  RH  037%=      5-min Rain = 0
KCR1 140146Z 10007KT 27/11 A2978 RMK A01 T02710110  RH  037%=      5-min Rain = 0
KCR1 140147Z 10007KT 27/11 A2978 RMK A01 T02710110  RH  037%=      5-min Rain = 0
KCR1 140148Z 10007KT 27/11 A2978 RMK A01 T02710110  RH  037%=      5-min Rain = 0
KCR1 140149Z 10007KT 27/11 A2978 RMK A01 T02710111  RH  037%=      5-min Rain = 0
KCR1 140150Z 10007KT 27/11 A2978 RMK A01 T02710111  RH  037%=      5-min Rain = 0
KCR1 140151Z 10007KT 27/11 A2979 RMK A01 T02710111  RH  037%=      5-min Rain = 0
KCR1 140152Z 10007KT 27/11 A2979 RMK A01 T02710111  RH  037%=      5-min Rain = 0
KCR1 140153Z 10007KT 27/11 A2979 RMK A01 T02710110  RH  037%=      5-min Rain = 0
KCR1 140154Z 10007KT 27/11 A2979 RMK A01 T02710110  RH  037%=      5-min Rain = 0
KCR1 140155Z 10007KT 27/11 A2979 RMK A01 T02710110  RH  037%=      5-min Rain = 0
KCR1 140156Z 10007KT 27/11 A2979 RMK A01 T02700110  RH  037%=      5-min Rain = 0
KCR1 140157Z 10007KT 27/11 A2979 RMK A01 T02700110  RH  037%=      5-min Rain = 0
KCR1 140158Z 10007KT 27/11 A2979 RMK A01 T02690109  RH  037%=      5-min Rain = 0
KCR1 140159Z 10008KT 27/11 A2979 RMK A01 T02690110  RH  037%=      5-min Rain = 0
KCR1 140200Z 10008KT 27/11 A2979 RMK A01 T02690110  RH  037%=      5-min Rain = 0
KCR1 140201Z 10008KT 27/11 A2979 RMK A01 T02700110  RH  037%=      5-min Rain = 0
KCR1 140202Z 10008KT 27/11 A2979 RMK A01 T02690110  RH  037%=      5-min Rain = 0
KCR1 140203Z 10008KT 27/11 A2979 RMK A01 T02690110  RH  037%=      5-min Rain = 0
KCR1 140204Z 10008KT 27/11 A2979 RMK A01 T02690109  RH  037%=      5-min Rain = 0
KCR1 140205Z 10008KT 27/11 A2979 RMK A01 T02680109  RH  037%=      5-min Rain = 0
KCR1 140206Z 10008KT 27/11 A2979 RMK A01 T02680109  RH  037%=      5-min Rain = 0
KCR1 140207Z 10008KT 27/11 A2979 RMK A01 T02680108  RH  037%=      5-min Rain = 0
KCR1 140208Z 10008KT 27/11 A2979 RMK A01 T02670107  RH  037%=      5-min Rain = 0
KCR1 140209Z 10007KT 27/11 A2979 RMK A01 T02660107  RH  037%=      5-min Rain = 0
KCR1 140210Z 10008KT 27/11 A2979 RMK A01 T02660107  RH  037%=      5-min Rain = 0
KCR1 140211Z 10008KT 27/11 A2979 RMK A01 T02660106  RH  037%=      5-min Rain = 0
KCR1 140212Z 10008KT 27/11 A2979 RMK A01 T02650105  RH  037%=      5-min Rain = 0
KCR1 140213Z 10009KT 27/11 A2979 RMK A01 T02660105  RH  037%=      5-min Rain = 0
KCR1 140214Z 09008KT 27/11 A2979 RMK A01 T02660105  RH  037%=      5-min Rain = 0
KCR1 140215Z 10009KT 27/11 A2979 RMK A01 T02650105  RH  037%=      5-min Rain = 0
KCR1 140216Z 10009KT 27/11 A2979 RMK A01 T02650105  RH  037%=      5-min Rain = 0
KCR1 140217Z 10008KT 27/11 A2979 RMK A01 T02650105  RH  037%=      5-min Rain = 0
KCR1 140218Z 10008KT 26/11 A2979 RMK A01 T02640105  RH  037%=      5-min Rain = 0
KCR1 140219Z 10009KT 26/11 A2979 RMK A01 T02640105  RH  037%=      5-min Rain = 0
KCR1 140220Z 10009KT 26/11 A2979 RMK A01 T02630105  RH  037%=      5-min Rain = 0
KCR1 140221Z 10008KT 26/11 A2979 RMK A01 T02630105  RH  037%=      5-min Rain = 0
KCR1 140222Z 10009KT 26/11 A2979 RMK A01 T02630105  RH  037%=      5-min Rain = 0
KCR1 140223Z 10008KT 26/11 A2979 RMK A01 T02630105  RH  037%=      5-min Rain = 0
KCR1 140224Z 10008KT 26/11 A2979 RMK A01 T02620105  RH  037%=      5-min Rain = 0
KCR1 140225Z 10009KT 26/11 A2979 RMK A01 T02630105  RH  037%=      5-min Rain = 0
KCR1 140226Z 10008KT 26/11 A2979 RMK A01 T02620105  RH  037%=      5-min Rain = 0
KCR1 140227Z 10008KT 26/11 A2979 RMK A01 T02620105  RH  037%=      5-min Rain = 0
KCR1 140228Z 10009KT 26/10 A2979 RMK A01 T02610104  RH  037%=      5-min Rain = 0
KCR1 140229Z 10009KT 26/10 A2979 RMK A01 T02610102  RH  037%=      5-min Rain = 0
KCR1 140230Z 10009KT 26/10 A2979 RMK A01 T02620101  RH  036%=      5-min Rain = 0
KCR1 140231Z 10008KT 26/10 A2979 RMK A01 T02620101  RH  036%=      5-min Rain = 0
KCR1 140232Z 10009KT 26/10 A2979 RMK A01 T02630100  RH  036%=      5-min Rain = 0
KCR1 140233Z 10008KT 26/10 A2979 RMK A01 T02640101  RH  036%=      5-min Rain = 0
KCR1 140234Z 10008KT 26/10 A2979 RMK A01 T02640100  RH  036%=      5-min Rain = 0
KCR1 140235Z 11008KT 26/10 A2979 RMK A01 T02630100  RH  036%=      5-min Rain = 0
KCR1 140236Z 11009KT 26/10 A2979 RMK A01 T02630100  RH  036%=      5-min Rain = 0
KCR1 140237Z 11009KT 26/10 A2979 RMK A01 T02630100  RH  036%=      5-min Rain = 0
KCR1 140238Z 11009KT 26/10 A2979 RMK A01 T02640100  RH  036%=      5-min Rain = 0
KCR1 140239Z 11008KT 26/10 A2979 RMK A01 T02640100  RH  036%=      5-min Rain = 0
KCR1 140240Z 11009KT 26/10 A2979 RMK A01 T02640101  RH  036%=      5-min Rain = 0
KCR1 140241Z 11009KT 26/10 A2979 RMK A01 T02630100  RH  036%=      5-min Rain = 0
KCR1 140242Z 11008KT 26/10 A298 RMK A01 T02630100  RH  036%=      5-min Rain = 0
KCR1 140243Z 11009KT 26/10 A298 RMK A01 T02630100  RH  036%=      5-min Rain = 0
KCR1 140244Z 11008KT 26/10 A298 RMK A01 T02620100  RH  036%=      5-min Rain = 0
KCR1 140245Z 11009KT 26/10 A298 RMK A01 T02620099  RH  036%=      5-min Rain = 0
KCR1 140246Z 11008KT 26/10 A298 RMK A01 T02620099  RH  036%=      5-min Rain = 0
KCR1 140247Z 11009KT 26/10 A298 RMK A01 T02620099  RH  036%=      5-min Rain = 0
KCR1 140248Z 11009KT 26/10 A298 RMK A01 T02630099  RH  036%=      5-min Rain = 0
KCR1 140249Z 11009KT 26/10 A298 RMK A01 T02630098  RH  036%=      5-min Rain = 0
KCR1 140250Z 11009KT 26/10 A298 RMK A01 T02620098  RH  035%=      5-min Rain = 0
KCR1 140251Z 11009KT 26/10 A298 RMK A01 T02630098  RH  035%=      5-min Rain = 0
KCR1 140252Z 11009KT 26/10 A298 RMK A01 T02630097  RH  035%=      5-min Rain = 0
KCR1 140253Z 11008KT 26/10 A298 RMK A01 T02630097  RH  035%=      5-min Rain = 0
KCR1 140254Z 11009KT 26/10 A298 RMK A01 T02630097  RH  035%=      5-min Rain = 0
KCR1 140255Z 11009KT 26/10 A298 RMK A01 T02630097  RH  035%=      5-min Rain = 0
KCR1 140256Z 11008KT 26/10 A298 RMK A01 T02630097  RH  035%=      5-min Rain = 0
KCR1 140257Z 11007KT 26/10 A298 RMK A01 T02620096  RH  035%=      5-min Rain = 0
KCR1 140258Z 11009KT 26/10 A298 RMK A01 T02620096  RH  035%=      5-min Rain = 0
KCR1 140259Z 11008KT 26/10 A298 RMK A01 T02620096  RH  035%=      5-min Rain = 0
KCR1 140300Z 11008KT 26/10 A298 RMK A01 T02610095  RH  035%=      5-min Rain = 0
KCR1 140301Z 11007KT 26/10 A298 RMK A01 T02610095  RH  035%=      5-min Rain = 0
KCR1 140302Z 11008KT 26/10 A298 RMK A01 T02610095  RH  035%=      5-min Rain = 0
KCR1 140303Z 12008KT 26/10 A298 RMK A01 T02600095  RH  035%=      5-min Rain = 0
KCR1 140304Z 11007KT 26/10 A298 RMK A01 T02600095  RH  035%=      5-min Rain = 0
KCR1 140305Z 12007KT 26/09 A298 RMK A01 T02590094  RH  035%=      5-min Rain = 0
KCR1 140306Z 12008KT 26/09 A298 RMK A01 T02590094  RH  035%=      5-min Rain = 0
KCR1 140307Z 11008KT 26/09 A298 RMK A01 T02580094  RH  035%=      5-min Rain = 0
KCR1 140308Z 12009KT 26/09 A298 RMK A01 T02580094  RH  035%=      5-min Rain = 0
KCR1 140309Z 12008KT 26/09 A298 RMK A01 T02590093  RH  035%=      5-min Rain = 0
KCR1 140310Z 12008KT 26/09 A298 RMK A01 T02590093  RH  035%=      5-min Rain = 0
KCR1 140311Z 12008KT 26/09 A298 RMK A01 T02590093  RH  035%=      5-min Rain = 0
KCR1 140312Z 12008KT 26/09 A298 RMK A01 T02590093  RH  035%=      5-min Rain = 0
KCR1 140313Z 12007KT 26/09 A298 RMK A01 T02580093  RH  035%=      5-min Rain = 0
KCR1 140314Z 12008KT 26/09 A298 RMK A01 T02580093  RH  035%=      5-min Rain = 0
KCR1 140315Z 12008KT 26/09 A298 RMK A01 T02580093  RH  035%=      5-min Rain = 0
KCR1 140316Z 13007KT 26/09 A298 RMK A01 T02570093  RH  035%=      5-min Rain = 0
KCR1 140317Z 12007KT 26/09 A298 RMK A01 T02570093  RH  035%=      5-min Rain = 0
KCR1 140318Z 12008KT 26/09 A298 RMK A01 T02560093  RH  036%=      5-min Rain = 0
KCR1 140319Z 12009KT 26/09 A298 RMK A01 T02560093  RH  036%=      5-min Rain = 0
KCR1 140320Z 12008KT 26/09 A298 RMK A01 T02560093  RH  036%=      5-min Rain = 0
KCR1 140321Z 12009KT 26/09 A298 RMK A01 T02550093  RH  036%=      5-min Rain = 0
KCR1 140322Z 13008KT 26/09 A298 RMK A01 T02550092  RH  036%=      5-min Rain = 0
KCR1 140323Z 12008KT 26/09 A298 RMK A01 T02550093  RH  036%=      5-min Rain = 0
KCR1 140324Z 12008KT 26/09 A298 RMK A01 T02550093  RH  036%=      5-min Rain = 0
KCR1 140325Z 13008KT 26/09 A298 RMK A01 T02550093  RH  036%=      5-min Rain = 0
KCR1 140326Z 12008KT 25/09 A298 RMK A01 T02540093  RH  036%=      5-min Rain = 0
KCR1 140327Z 13008KT 25/09 A298 RMK A01 T02530093  RH  036%=      5-min Rain = 0
KCR1 140328Z 13008KT 25/09 A298 RMK A01 T02530093  RH  036%=      5-min Rain = 0
KCR1 140329Z 12009KT 25/09 A298 RMK A01 T02530093  RH  036%=      5-min Rain = 0
KCR1 140330Z 12008KT 25/09 A298 RMK A01 T02530092  RH  036%=      5-min Rain = 0
KCR1 140331Z 13009KT 25/09 A298 RMK A01 T02530093  RH  036%=      5-min Rain = 0
KCR1 140332Z 12007KT 25/09 A298 RMK A01 T02520092  RH  036%=      5-min Rain = 0
KCR1 140333Z 12007KT 25/09 A298 RMK A01 T02520092  RH  036%=      5-min Rain = 0
KCR1 140334Z 13007KT 25/09 A298 RMK A01 T02510092  RH  036%=      5-min Rain = 0
KCR1 140335Z 13008KT 25/09 A298 RMK A01 T02510091  RH  036%=      5-min Rain = 0
KCR1 140336Z 13007KT 25/09 A2981 RMK A01 T02500091  RH  036%=      5-min Rain = 0
KCR1 140337Z 13007KT 25/09 A2981 RMK A01 T02500092  RH  037%=      5-min Rain = 0
KCR1 140338Z 13008KT 25/09 A2981 RMK A01 T02490091  RH  037%=      5-min Rain = 0
KCR1 140339Z 13007KT 25/09 A2981 RMK A01 T02490091  RH  037%=      5-min Rain = 0
KCR1 140340Z 13008KT 25/09 A2981 RMK A01 T02490091  RH  037%=      5-min Rain = 0
KCR1 140341Z 13009KT 25/09 A2981 RMK A01 T02500091  RH  037%=      5-min Rain = 0
KCR1 140342Z 13008KT 25/09 A2981 RMK A01 T02500091  RH  036%=      5-min Rain = 0
KCR1 140343Z 13009KT 25/09 A2981 RMK A01 T02510091  RH  036%=      5-min Rain = 0
KCR1 140344Z 13007KT 25/09 A2981 RMK A01 T02510092  RH  036%=      5-min Rain = 0
KCR1 140345Z 13007KT 25/09 A2981 RMK A01 T02500092  RH  037%=      5-min Rain = 0
KCR1 140346Z 13008KT 25/09 A2981 RMK A01 T02490092  RH  037%=      5-min Rain = 0
KCR1 140347Z 13007KT 25/09 A2981 RMK A01 T02480092  RH  037%=      5-min Rain = 0
KCR1 140348Z 13008KT 25/09 A2981 RMK A01 T02470092  RH  037%=      5-min Rain = 0
KCR1 140349Z 13008KT 25/09 A2981 RMK A01 T02470092  RH  038%=      5-min Rain = 0
KCR1 140350Z 13008KT 25/09 A2981 RMK A01 T02460092  RH  038%=      5-min Rain = 0
KCR1 140351Z 13007KT 25/09 A2981 RMK A01 T02460093  RH  038%=      5-min Rain = 0
KCR1 140352Z 13008KT 25/09 A2981 RMK A01 T02460093  RH  038%=      5-min Rain = 0
KCR1 140353Z 13007KT 25/09 A2981 RMK A01 T02460093  RH  038%=      5-min Rain = 0
KCR1 140354Z 13008KT 25/09 A2981 RMK A01 T02460093  RH  038%=      5-min Rain = 0
KCR1 140355Z 13007KT 25/09 A2981 RMK A01 T02450093  RH  038%=      5-min Rain = 0
KCR1 140356Z 13007KT 25/09 A2981 RMK A01 T02450094  RH  038%=      5-min Rain = 0
KCR1 140357Z 13008KT 24/09 A2981 RMK A01 T02440093  RH  038%=      5-min Rain = 0
KCR1 140358Z 13008KT 24/09 A2981 RMK A01 T02440094  RH  038%=      5-min Rain = 0
KCR1 140359Z 13008KT 24/09 A2981 RMK A01 T02440094  RH  038%=      5-min Rain = 0
KCR1 140400Z 13007KT 24/09 A2981 RMK A01 T02440094  RH  039%=      5-min Rain = 0
KCR1 140401Z 13008KT 24/09 A2981 RMK A01 T02430094  RH  039%=      5-min Rain = 0
KCR1 140402Z 13008KT 24/09 A2981 RMK A01 T02430094  RH  039%=      5-min Rain = 0
KCR1 140403Z 13008KT 24/09 A2981 RMK A01 T02420094  RH  039%=      5-min Rain = 0
KCR1 140404Z 13008KT 24/10 A2981 RMK A01 T02420095  RH  039%=      5-min Rain = 0
KCR1 140405Z 13009KT 24/10 A2981 RMK A01 T02410095  RH  039%=      5-min Rain = 0
KCR1 140406Z 13008KT 24/09 A2981 RMK A01 T02410094  RH  039%=      5-min Rain = 0
KCR1 140407Z 13008KT 24/10 A2981 RMK A01 T02410095  RH  039%=      5-min Rain = 0
KCR1 140408Z 13008KT 24/10 A2981 RMK A01 T02410095  RH  039%=      5-min Rain = 0
KCR1 140409Z 13008KT 24/10 A2981 RMK A01 T02410096  RH  040%=      5-min Rain = 0
KCR1 140410Z 13007KT 24/10 A2981 RMK A01 T02410096  RH  040%=      5-min Rain = 0
KCR1 140411Z 13008KT 24/10 A2981 RMK A01 T02400096  RH  040%=      5-min Rain = 0
KCR1 140412Z 13008KT 24/10 A2981 RMK A01 T02390096  RH  040%=      5-min Rain = 0
KCR1 140413Z 13008KT 24/10 A2981 RMK A01 T02400096  RH  040%=      5-min Rain = 0
KCR1 140414Z 13008KT 24/10 A2981 RMK A01 T02400096  RH  040%=      5-min Rain = 0
KCR1 140415Z 13008KT 24/10 A2981 RMK A01 T02400097  RH  040%=      5-min Rain = 0
KCR1 140416Z 13009KT 24/10 A2981 RMK A01 T02390097  RH  040%=      5-min Rain = 0
KCR1 140417Z 13008KT 24/10 A2981 RMK A01 T02390097  RH  041%=      5-min Rain = 0
KCR1 140418Z 13008KT 24/10 A298 RMK A01 T02390097  RH  041%=      5-min Rain = 0
KCR1 140419Z 13007KT 24/10 A2981 RMK A01 T02390097  RH  041%=      5-min Rain = 0
KCR1 140420Z 13008KT 24/10 A298 RMK A01 T02390098  RH  041%=      5-min Rain = 0
KCR1 140421Z 13008KT 24/10 A2981 RMK A01 T02380097  RH  041%=      5-min Rain = 0
KCR1 140422Z 13007KT 24/10 A2981 RMK A01 T02380098  RH  041%=      5-min Rain = 0
KCR1 140423Z 13008KT 24/10 A2981 RMK A01 T02370098  RH  041%=      5-min Rain = 0
KCR1 140424Z 13008KT 24/10 A2981 RMK A01 T02360098  RH  041%=      5-min Rain = 0
KCR1 140425Z 13008KT 24/10 A2981 RMK A01 T02360098  RH  042%=      5-min Rain = 0
KCR1 140426Z 13007KT 24/10 A2981 RMK A01 T02360099  RH  042%=      5-min Rain = 0
KCR1 140427Z 13007KT 24/10 A2981 RMK A01 T02360098  RH  042%=      5-min Rain = 0
KCR1 140428Z 13007KT 24/10 A298 RMK A01 T02360099  RH  042%=      5-min Rain = 0
KCR1 140429Z 12006KT 24/10 A298 RMK A01 T02350099  RH  042%=      5-min Rain = 0
KCR1 140430Z 13007KT 24/10 A298 RMK A01 T02350099  RH  042%=      5-min Rain = 0
KCR1 140431Z 13007KT 24/10 A298 RMK A01 T02350099  RH  042%=      5-min Rain = 0
KCR1 140432Z 13007KT 23/10 A298 RMK A01 T02340099  RH  042%=      5-min Rain = 0
KCR1 140433Z 13006KT 23/10 A2981 RMK A01 T02330099  RH  043%=      5-min Rain = 0
KCR1 140434Z 13007KT 23/10 A2981 RMK A01 T02330099  RH  043%=      5-min Rain = 0
KCR1 140435Z 13007KT 23/10 A2981 RMK A01 T02330100  RH  043%=      5-min Rain = 0
KCR1 140436Z 13007KT 23/10 A2981 RMK A01 T02320100  RH  043%=      5-min Rain = 0
KCR1 140437Z 13007KT 23/10 A298 RMK A01 T02320100  RH  043%=      5-min Rain = 0
KCR1 140438Z 13007KT 23/10 A2981 RMK A01 T02310100  RH  043%=      5-min Rain = 0
KCR1 140439Z 14007KT 23/10 A2981 RMK A01 T02310100  RH  043%=      5-min Rain = 0
KCR1 140440Z 13007KT 23/10 A2981 RMK A01 T02310101  RH  044%=      5-min Rain = 0
KCR1 140441Z 13006KT 23/10 A2981 RMK A01 T02310101  RH  044%=      5-min Rain = 0
KCR1 140442Z 14007KT 23/10 A2981 RMK A01 T02310101  RH  044%=      5-min Rain = 0
KCR1 140443Z 14007KT 23/10 A2981 RMK A01 T02300101  RH  044%=      5-min Rain = 0
KCR1 140444Z 14007KT 23/10 A2981 RMK A01 T02300101  RH  044%=      5-min Rain = 0
KCR1 140445Z 14007KT 23/10 A2981 RMK A01 T02300102  RH  044%=      5-min Rain = 0
KCR1 140446Z 14006KT 23/10 A2981 RMK A01 T02300102  RH  044%=      5-min Rain = 0
KCR1 140447Z 14006KT 23/10 A2981 RMK A01 T02300102  RH  044%=      5-min Rain = 0
KCR1 140448Z 13006KT 23/10 A298 RMK A01 T02300102  RH  044%=      5-min Rain = 0
KCR1 140449Z 14007KT 23/10 A298 RMK A01 T02290102  RH  045%=      5-min Rain = 0
KCR1 140450Z 13007KT 23/10 A2981 RMK A01 T02290102  RH  045%=      5-min Rain = 0
KCR1 140451Z 14006KT 23/10 A2981 RMK A01 T02290103  RH  045%=      5-min Rain = 0
KCR1 140452Z 14007KT 23/10 A2981 RMK A01 T02290102  RH  045%=      5-min Rain = 0
KCR1 140453Z 14007KT 23/10 A2981 RMK A01 T02290103  RH  045%=      5-min Rain = 0
KCR1 140454Z 14008KT 23/10 A2981 RMK A01 T02290103  RH  045%=      5-min Rain = 0
KCR1 140455Z 14007KT 23/10 A298 RMK A01 T02290103  RH  045%=      5-min Rain = 0
KCR1 140456Z 13008KT 23/10 A298 RMK A01 T02300103  RH  045%=      5-min Rain = 0
KCR1 140457Z 13007KT 23/10 A298 RMK A01 T02300102  RH  044%=      5-min Rain = 0
KCR1 140458Z 13007KT 23/10 A298 RMK A01 T02300102  RH  044%=      5-min Rain = 0
KCR1 140459Z 13007KT 23/10 A298 RMK A01 T02300103  RH  044%=      5-min Rain = 0

Page generated in 0.1862 seconds.